GFSNGP_925_thetae_024.txt.gz
Theta_e
315 314 314 314 313 312 313 312 313 312 314 316 314 313 312 311 309 308 307 306 305 304 303 303 302 301 298 297 296 296 295 296 296 296 295 296 297 297 296 295 293 292 290 289
313 316 315 313 312 313 314 313 314 315 317 314 312 310 310 311 308 308 307 306 304 303 303 304 302 297 296 296 295 295 294 296 296 295 295 295 295 295 295 294 292 290 289 289
310 313 312 311 314 315 314 313 314 313 313 311 311 310 309 308 307 307 306 305 304 304 304 301 297 296 295 295 295 294 296 295 294 293 293 293 293 294 294 292 290 289 289 288
305 303 302 311 312 313 313 314 314 313 311 310 309 308 306 305 305 305 304 304 302 300 297 297 296 295 295 295 294 294 294 293 293 293 292 293 292 291 291 291 289 288 288 287
303 309 306 313 315 314 313 313 315 313 311 310 308 307 306 305 305 305 304 302 298 296 296 295 295 294 294 293 294 293 293 292 292 291 291 292 292 291 290 290 289 288 286 284
309 301 302 306 314 312 311 312 315 313 310 309 307 303 304 304 304 304 300 297 295 295 295 294 294 294 293 293 293 292 292 291 291 291 291 291 292 291 291 289 288 286 284 283
297 300 306 307 313 311 312 310 313 311 309 307 306 304 304 305 303 299 296 295 295 295 294 294 294 294 293 293 292 292 291 290 290 289 289 289 291 291 290 288 286 284 283 282
303 301 309 309 312 311 309 311 311 309 307 307 306 306 306 300 298 296 294 295 294 294 294 294 294 294 293 292 292 291 291 290 289 289 288 288 288 288 287 286 285 284 283 281
310 310 308 309 311 309 310 310 308 307 307 307 307 306 300 297 295 294 294 294 294 293 293 294 293 293 292 292 291 291 290 289 288 288 288 287 286 286 285 284 284 283 282 281
311 312 311 311 312 311 310 308 307 308 308 308 307 300 295 294 293 293 293 293 293 293 293 293 293 292 292 292 291 290 289 288 287 286 285 286 285 285 284 284 283 283 282 282
309 312 312 312 311 308 307 306 308 308 307 305 297 294 294 293 292 292 293 293 293 293 293 293 292 292 291 291 291 289 288 287 286 285 285 286 285 284 283 283 283 283 283 282
309 310 310 311 308 307 307 308 308 306 297 295 294 293 293 292 292 292 292 292 292 292 292 292 291 291 290 290 289 289 288 287 286 284 285 286 284 284 283 283 283 283 283 282
312 312 311 308 307 308 308 307 304 297 294 293 293 293 293 292 292 292 291 292 291 291 291 290 288 289 290 289 289 288 287 286 285 285 285 285 284 283 283 283 282 282 282 282
309 308 308 307 307 308 307 302 295 294 293 293 293 293 293 292 292 291 291 290 290 290 290 289 288 288 289 289 288 287 287 286 285 284 284 283 283 283 283 283 282 282 282 282
308 308 306 306 307 301 297 295 294 292 292 292 293 293 292 292 291 290 290 290 289 288 288 287 287 288 288 288 287 287 286 286 285 285 284 283 283 283 284 282 283 282 282 282
307 306 306 307 299 296 295 294 293 293 292 292 292 292 292 291 290 290 290 289 287 287 287 286 287 288 289 289 287 286 286 285 285 285 284 283 283 283 283 283 282 282 282 282
308 308 302 297 296 296 295 294 293 292 292 292 292 292 291 291 290 290 289 288 287 287 287 286 287 288 289 289 288 286 285 284 284 283 283 283 284 284 284 283 282 282 283 282
301 298 296 296 295 295 294 293 293 292 292 292 292 291 291 291 288 289 288 288 287 287 287 287 288 288 288 288 288 286 285 284 283 282 282 282 282 283 283 284 283 283 282 282
296 296 296 295 295 294 293 292 292 292 292 291 291 291 290 289 288 288 288 288 287 287 287 287 288 288 287 287 288 286 285 284 283 282 282 282 283 283 283 284 284 283 282 282
294 294 294 293 292 292 291 291 291 291 291 291 291 290 289 289 289 289 288 288 288 288 288 288 287 288 287 287 287 286 284 284 283 283 283 283 283 283 283 284 284 284 283 282
292 293 293 293 293 292 292 292 292 292 291 292 291 291 290 290 290 289 288 286 288 288 288 288 287 286 287 287 287 287 286 285 285 285 284 283 283 283 283 283 283 283 282 281
292 292 292 292 292 292 292 292 292 292 292 292 291 291 290 290 290 290 289 288 289 289 288 288 287 286 287 287 287 287 286 286 285 285 284 284 283 283 283 282 283 283 282 282
292 292 292 292 292 291 292 292 293 292 291 292 292 291 290 291 290 288 286 288 288 288 288 288 288 287 286 287 286 286 287 286 286 285 284 284 283 283 283 283 283 283 283 283
293 292 292 292 292 292 291 292 293 293 293 293 293 293 292 291 291 289 288 287 286 286 286 286 287 288 287 287 287 286 286 286 286 285 285 284 283 283 283 283 283 283 282 282
292 292 292 292 291 292 292 293 292 293 292 292 292 292 292 291 289 288 287 286 286 286 286 286 286 286 286 286 286 286 286 286 286 285 285 284 284 284 283 283 282 282 281 281
292 292 292 293 293 293 293 292 291 292 291 291 290 291 291 289 288 287 286 287 285 285 285 284 285 285 285 285 286 286 286 286 285 285 284 284 284 284 284 282 282 281 281 280
293 293 293 293 293 292 292 292 291 290 291 291 290 289 289 289 288 287 287 285 285 284 283 282 282 283 284 285 285 285 285 285 286 285 284 284 284 284 284 282 282 281 280 280

GFSNGP_925_thetae_027.txt.gz
Theta_e
313 313 313 313 312 312 313 312 312 311 312 312 312 311 310 308 306 306 306 306 304 303 302 302 302 298 296 296 295 295 294 295 295 294 293 292 292 291 293 294 294 293 291 289
314 314 313 313 311 309 309 311 312 312 315 312 311 309 310 309 307 307 307 305 304 303 303 302 297 296 296 295 295 294 294 295 294 293 292 291 292 292 293 294 293 291 290 289
306 310 308 306 308 312 313 312 311 313 312 311 310 309 309 307 306 306 305 304 303 302 300 297 296 295 295 295 294 294 295 294 293 293 291 291 292 291 290 291 290 290 288 286
303 302 302 308 309 311 311 312 313 312 311 310 308 308 306 305 305 304 303 302 300 297 296 295 295 294 294 294 294 294 293 292 292 291 290 290 292 290 290 290 289 287 287 286
303 305 305 309 313 312 312 311 312 311 309 309 307 306 306 303 302 302 302 301 296 295 295 294 294 294 294 293 293 293 292 292 291 290 290 290 291 292 290 290 288 287 285 284
305 300 300 305 312 311 310 311 312 310 309 308 306 304 305 303 302 302 298 295 294 294 294 294 294 294 293 292 292 292 292 291 290 289 289 289 289 291 291 289 287 286 284 283
296 299 304 305 311 310 311 307 311 310 309 306 306 304 303 303 303 299 295 294 294 294 293 293 294 293 293 293 292 292 292 291 290 289 288 288 289 290 289 288 286 284 283 282
305 303 310 307 310 311 308 309 310 308 307 306 306 305 305 302 295 294 293 293 293 293 293 293 293 293 292 292 292 292 291 290 289 288 287 287 287 287 286 285 285 284 282 281
308 309 306 306 310 308 308 310 309 307 306 306 306 306 300 295 294 293 292 293 293 293 293 293 293 292 292 292 291 291 290 289 288 287 287 286 286 285 285 284 283 283 282 282
309 309 309 307 309 310 309 309 306 306 306 306 307 299 296 293 292 291 292 292 292 292 292 292 292 292 292 291 290 290 289 288 287 286 285 285 285 284 284 283 283 283 282 282
308 309 311 311 310 309 307 306 307 307 306 305 301 294 293 291 291 291 292 292 291 292 291 291 291 291 289 289 290 289 289 288 287 285 284 285 284 284 283 283 283 283 283 282
309 309 310 309 309 306 306 306 306 304 298 295 294 292 292 291 292 292 291 291 291 290 290 291 290 288 288 289 289 288 288 288 287 285 284 285 285 284 283 282 283 283 282 282
309 308 308 309 305 305 306 307 303 296 294 293 292 292 292 291 292 291 290 290 290 289 290 289 288 288 288 288 289 288 287 287 286 285 284 283 283 284 283 282 282 282 282 282
309 307 309 307 307 307 306 299 296 294 293 293 292 292 292 291 291 290 290 290 289 289 288 287 287 287 288 288 288 288 287 287 286 285 285 283 283 282 283 283 282 282 282 281
307 307 307 305 306 301 295 294 294 293 292 292 292 292 291 291 290 290 290 289 289 288 287 286 286 286 287 288 289 288 287 286 285 285 285 284 283 283 283 283 282 282 281 281
307 306 305 304 298 295 295 294 293 292 292 291 291 291 291 291 290 290 289 289 288 286 287 286 286 286 287 288 289 288 288 286 285 284 284 284 284 283 283 283 283 282 281 282
306 305 297 297 296 296 295 294 293 292 291 291 291 291 291 290 290 290 289 288 287 287 287 287 287 287 287 288 287 287 288 286 285 284 283 283 282 283 283 284 283 283 282 282
299 298 297 296 296 295 293 292 292 292 291 291 291 291 291 290 289 290 288 288 288 288 288 288 287 287 287 287 287 287 287 286 285 284 283 282 282 282 282 282 283 283 283 283
297 296 295 295 295 294 293 292 292 291 291 291 291 291 291 290 290 289 289 288 288 287 289 288 287 288 287 288 287 287 287 286 285 283 282 282 282 282 282 283 283 283 283 283
297 296 295 294 292 291 291 291 291 291 291 290 291 290 289 290 290 290 289 288 289 289 288 288 288 287 287 286 286 287 287 286 285 284 284 283 283 283 283 282 283 283 283 283
291 291 291 292 292 292 292 292 292 292 292 291 290 289 288 290 290 290 288 286 290 288 288 288 288 288 288 286 286 286 286 287 286 285 285 285 284 284 283 283 282 282 283 283
291 291 291 291 291 291 291 292 292 292 292 292 291 290 288 289 290 290 289 288 289 287 287 287 286 286 286 287 287 286 286 286 286 286 286 285 284 284 284 283 283 282 282 282
292 292 291 291 291 291 291 292 292 292 291 292 291 291 290 290 290 288 286 290 288 287 286 285 285 285 285 286 286 286 286 285 285 285 285 285 285 284 283 283 283 283 282 283
291 291 291 292 292 291 290 292 292 292 291 291 292 292 291 291 291 291 290 289 287 287 285 284 284 284 285 285 285 285 285 285 285 285 284 285 284 284 284 283 283 283 283 283
292 291 291 291 291 292 292 292 291 291 291 292 292 292 290 289 290 290 289 288 287 286 285 285 284 283 283 284 284 284 285 285 285 285 285 284 284 284 283 283 283 283 283 282
291 290 290 290 290 289 289 289 288 289 290 289 290 290 290 289 290 289 289 288 285 285 284 282 282 281 280 280 280 281 283 284 285 285 285 285 284 284 283 283 284 283 282 282
287 287 286 286 286 286 285 285 285 287 288 287 286 287 287 287 287 287 287 286 285 283 281 280 279 278 277 277 277 277 277 278 280 282 284 285 285 284 284 283 284 283 282 281

GFSNGP_925_thetae_030.txt.gz
Theta_e
313 312 312 311 311 313 313 311 312 310 310 309 311 311 309 307 305 305 304 304 303 302 302 301 301 298 296 296 295 295 294 294 295 293 293 292 291 291 291 292 292 292 292 290
315 312 311 312 310 309 309 309 310 310 310 307 310 308 308 307 306 306 305 304 302 302 302 301 297 296 295 295 294 294 293 294 294 292 292 291 290 291 291 290 290 290 290 288
309 307 305 306 308 309 309 309 308 311 309 310 310 309 308 306 306 305 304 303 302 302 299 297 296 295 294 294 294 293 293 294 292 292 291 290 290 291 289 290 290 289 288 286
302 301 303 307 308 309 309 310 308 311 310 310 309 307 307 305 305 304 303 302 301 297 296 296 295 294 294 293 293 293 293 292 292 291 290 290 290 290 291 289 289 288 286 285
302 304 304 307 309 311 311 310 310 310 310 307 306 306 307 304 303 302 302 301 299 296 296 295 294 293 293 293 292 293 292 292 291 290 289 289 288 289 290 291 290 287 285 284
300 301 300 304 307 309 310 311 309 309 308 307 306 307 308 303 301 301 302 298 294 294 294 293 293 293 293 293 293 292 292 291 291 290 289 288 288 288 289 290 288 286 284 283
296 298 303 303 309 309 311 309 309 308 307 305 307 306 304 301 301 301 295 293 293 293 293 293 293 293 293 292 292 292 291 291 290 289 288 287 287 288 288 288 286 284 283 282
303 299 309 305 311 311 309 307 309 307 305 306 305 302 303 302 294 293 292 293 293 293 292 292 292 292 292 291 292 291 291 290 289 289 288 287 286 286 286 286 284 284 283 282
307 308 306 304 308 307 306 307 308 307 306 306 304 304 299 294 293 292 292 292 292 292 292 292 292 292 291 291 291 290 289 289 288 288 287 285 285 285 284 284 284 283 282 282
308 308 306 305 305 308 307 308 308 307 305 305 306 301 295 294 293 291 291 292 292 291 291 291 291 291 291 290 288 289 289 289 288 288 287 284 285 284 284 283 283 282 282 282
306 307 307 308 308 307 308 306 306 305 305 305 298 296 296 293 291 291 291 291 291 291 290 290 290 290 289 288 288 289 288 288 288 288 286 284 285 284 284 283 283 282 283 282
307 306 308 307 309 307 307 306 306 304 301 297 298 296 292 291 291 291 291 290 290 289 289 289 289 288 288 288 288 288 288 287 287 287 286 284 284 284 284 283 282 282 282 282
307 307 306 307 306 305 305 305 302 297 295 294 293 292 292 291 291 291 290 290 289 289 289 288 288 287 287 287 287 288 288 287 287 286 286 285 284 283 283 282 282 282 282 282
307 307 310 307 308 305 304 297 295 293 293 292 292 292 292 291 291 289 289 289 289 289 288 287 286 286 286 287 287 288 288 288 287 286 286 285 284 283 283 282 282 282 282 282
307 306 305 305 303 295 294 294 294 293 293 292 292 292 291 290 290 289 289 289 289 288 287 286 286 286 286 286 287 287 288 287 287 286 285 285 284 284 283 282 282 283 282 281
306 304 300 298 295 295 295 295 294 292 292 291 291 291 291 291 290 290 289 289 288 287 287 287 287 287 287 286 287 287 287 287 287 286 285 284 284 283 283 283 283 282 282 281
306 298 295 296 297 297 295 295 293 292 293 293 291 290 291 290 290 289 289 288 287 288 288 288 287 287 287 287 287 287 287 286 286 285 285 284 283 282 282 282 282 282 283 283
297 297 297 296 295 293 292 293 294 293 291 290 291 291 290 289 288 289 289 289 288 288 289 289 288 287 287 287 286 286 287 286 286 285 285 284 283 282 282 282 282 282 282 283
295 294 293 293 294 294 295 293 292 291 291 291 290 290 289 289 289 289 289 289 289 287 289 288 288 288 287 287 286 286 285 286 286 285 285 284 282 282 282 282 282 282 282 283
295 295 295 294 293 292 290 290 291 290 290 290 290 289 289 290 290 290 289 288 289 290 289 288 287 288 288 288 287 287 286 286 286 285 285 284 284 283 283 283 283 282 282 282
291 291 290 291 291 291 291 291 291 291 291 291 290 290 290 290 290 289 287 285 290 290 289 288 287 286 285 285 285 285 286 285 285 285 285 284 285 284 284 284 284 283 283 282
290 290 291 291 291 291 291 291 291 291 291 291 291 291 289 288 289 290 290 288 291 290 288 287 285 285 284 284 284 285 285 285 285 285 284 284 283 283 283 283 283 284 284 283
291 291 290 290 290 290 291 291 291 291 291 291 290 290 290 290 290 287 286 289 289 289 288 287 285 284 284 284 284 284 284 284 284 285 285 284 284 283 283 283 283 283 283 283
291 290 290 290 290 290 289 290 289 290 290 290 290 290 290 290 290 289 290 289 289 289 287 286 284 284 283 283 282 283 283 284 284 284 284 284 284 284 283 283 283 283 282 283
290 289 289 288 287 286 286 285 285 285 285 286 286 287 288 288 287 288 288 289 288 287 286 284 283 282 281 280 279 279 279 279 280 281 282 284 284 284 284 283 283 283 282 282
286 285 285 285 284 282 282 282 282 283 284 284 284 285 286 286 286 286 286 286 286 285 284 283 281 280 279 278 277 276 275 275 275 275 277 279 281 282 283 284 284 283 283 282
283 282 281 280 280 279 278 279 280 280 280 281 283 284 286 285 285 285 286 286 285 282 281 280 279 277 277 276 275 274 273 273 273 274 275 276 277 279 283 284 284 283 283 282

GFSNGP_925_thetae_033.txt.gz
Theta_e
313 313 312 311 313 314 314 313 318 313 313 312 313 316 314 312 310 309 308 306 306 305 303 302 301 299 297 296 295 294 294 294 294 294 292 292 291 290 290 290 291 291 290 290
315 312 311 313 311 311 313 312 312 311 313 310 310 311 312 311 310 309 308 307 305 303 302 302 299 297 296 295 294 294 293 293 294 292 292 291 290 290 290 290 290 290 289 288
315 308 307 313 313 312 311 310 313 314 314 313 313 312 313 311 309 309 308 306 304 303 302 300 296 295 294 294 294 293 292 294 293 292 291 290 290 290 290 291 289 289 288 286
312 305 311 310 309 309 311 311 309 310 311 313 312 310 310 309 309 308 307 305 304 301 298 296 295 294 294 293 293 293 293 292 292 291 291 290 289 289 289 290 290 289 286 285
314 310 307 308 306 310 313 312 310 311 311 310 308 310 311 308 308 308 306 304 302 298 296 294 294 294 293 293 293 292 292 292 292 291 290 289 289 288 288 289 290 289 286 284
306 310 311 308 306 310 310 317 310 311 311 310 310 317 315 308 306 306 304 301 296 294 294 293 293 293 293 292 292 292 292 291 291 290 289 289 288 287 288 289 289 287 285 284
303 313 310 306 306 309 315 315 309 311 310 309 313 314 308 306 304 302 298 294 293 293 293 293 293 293 292 292 291 291 291 290 290 289 289 288 287 286 286 287 286 285 284 283
305 310 315 306 311 315 314 308 309 310 309 310 309 306 304 303 299 295 293 293 293 293 292 292 292 292 291 291 291 291 290 289 289 289 288 288 287 286 285 285 285 284 284 283
311 314 309 306 311 309 307 309 310 310 309 308 306 306 302 297 294 293 293 293 292 292 292 291 291 291 291 291 291 289 288 289 288 288 288 287 286 285 285 284 284 284 283 283
310 310 308 308 307 306 307 309 309 309 309 308 308 304 297 294 296 294 293 292 291 291 291 291 290 290 290 290 288 288 288 289 288 288 287 287 286 285 284 284 284 283 283 283
310 310 308 308 308 310 308 308 308 308 308 308 305 297 296 297 294 292 292 291 291 291 290 289 289 289 289 288 288 287 288 288 288 288 287 287 285 285 284 284 284 283 283 283
313 309 309 309 308 309 309 309 308 307 302 299 299 297 295 292 291 292 292 290 290 290 289 289 288 288 287 287 287 287 288 288 288 288 287 286 285 285 284 284 283 282 282 282
310 308 308 308 307 307 308 307 303 300 297 296 293 292 292 292 294 291 290 290 290 289 289 288 288 287 286 286 286 287 287 287 288 287 287 286 286 285 285 284 282 282 282 282
308 308 310 308 309 304 299 295 294 294 294 294 294 293 293 292 291 290 290 289 289 289 288 287 287 286 286 286 286 286 286 286 287 287 287 286 286 285 285 284 284 283 282 282
306 306 306 300 296 295 295 295 296 295 293 292 292 292 292 291 290 290 289 289 289 288 288 287 287 287 287 286 286 286 287 286 287 286 286 286 285 284 284 284 283 283 283 282
299 296 296 297 297 296 295 294 293 292 291 291 294 293 291 290 290 290 289 289 288 288 288 288 288 288 287 287 286 286 287 287 287 286 286 285 284 284 283 283 283 283 283 283
302 298 298 297 295 295 295 293 293 293 294 296 294 291 290 290 290 289 289 289 288 288 288 288 288 288 288 287 287 287 286 286 286 286 285 285 285 284 284 283 283 282 282 282
296 295 295 294 295 294 294 293 294 295 293 291 290 290 290 288 288 289 289 289 288 288 289 289 289 288 288 288 287 287 286 285 285 285 285 284 284 284 283 282 282 282 282 282
296 296 295 295 295 295 295 294 293 292 290 290 290 289 289 289 288 288 288 288 288 288 290 290 289 288 288 287 287 286 286 286 286 285 284 284 283 283 283 282 281 281 281 281
295 295 294 294 293 292 290 290 290 290 290 289 289 289 289 290 290 289 288 287 288 290 290 290 289 288 287 286 285 284 284 284 285 285 284 284 283 283 283 283 283 282 282 282
290 290 289 289 289 290 290 290 290 290 290 290 289 289 288 289 289 288 286 286 290 289 288 289 288 287 286 285 284 284 284 284 285 285 285 285 284 283 283 283 283 283 283 283
290 290 289 289 289 289 289 289 289 289 289 289 289 289 288 287 288 288 288 287 290 289 288 288 288 287 286 284 284 284 284 284 284 284 284 285 284 284 284 284 284 283 283 283
290 290 289 289 288 288 288 287 286 285 285 285 285 286 285 285 285 285 287 288 287 287 287 287 287 287 285 284 284 283 283 283 284 284 284 284 284 284 284 283 283 283 283 283
289 288 287 286 285 284 284 284 283 283 283 283 284 284 284 284 284 285 285 284 285 286 286 286 286 284 284 283 282 280 280 279 279 279 279 280 281 283 284 284 283 283 283 283
285 285 284 283 282 282 281 280 280 281 281 281 281 281 282 283 284 284 284 284 285 285 285 285 283 283 282 280 279 277 276 274 273 274 274 275 277 278 280 281 283 283 283 283
282 282 281 280 279 278 277 277 278 278 277 277 277 278 279 279 280 281 283 284 284 285 285 282 280 279 278 276 276 275 274 273 272 272 272 271 271 272 274 276 279 282 283 283
278 276 277 277 276 275 274 273 274 274 274 274 275 276 275 276 277 278 279 281 283 281 278 276 275 275 274 274 273 272 272 271 271 270 270 269 269 269 270 272 275 280 283 283

GFSNGP_925_thetae_036.txt.gz
Theta_e
318 317 317 317 318 319 318 318 319 316 315 314 315 316 317 320 320 319 317 315 314 313 310 307 304 304 303 301 300 298 297 297 297 297 296 295 295 294 293 293 293 293 292 292
320 317 316 317 317 316 318 318 318 318 317 316 315 315 318 319 319 318 316 314 313 312 309 307 305 304 301 299 298 297 297 296 296 296 295 295 294 293 293 293 293 292 292 291
318 314 314 321 318 317 317 318 318 319 318 316 315 315 316 317 317 317 316 314 312 311 307 306 304 301 299 297 297 296 295 295 296 295 294 293 292 292 292 292 292 292 291 291
320 313 327 313 312 313 317 317 316 316 315 314 315 316 316 316 317 316 315 313 312 309 306 304 300 299 297 296 296 295 295 295 294 294 293 293 292 292 292 291 292 291 291 290
327 316 314 312 311 311 313 313 314 314 314 314 315 315 317 315 315 315 314 312 310 307 303 300 298 297 296 296 295 294 294 294 293 293 293 292 292 292 291 291 291 291 290 290
316 332 335 314 312 313 314 315 312 315 315 316 315 319 314 315 314 314 312 311 307 301 299 297 297 296 296 295 294 293 293 293 293 292 292 292 292 291 290 290 290 290 290 289
320 327 319 313 310 313 316 315 314 315 316 316 317 315 315 314 313 312 310 306 299 297 296 296 295 295 295 294 293 293 293 292 292 291 291 291 291 290 290 289 289 289 288 287
317 327 326 311 314 319 317 316 313 315 316 316 316 313 312 312 311 307 303 298 297 296 296 295 294 294 293 293 293 293 292 291 291 291 291 290 290 290 289 289 288 288 286 286
318 319 313 312 316 315 314 315 315 315 315 314 314 312 310 309 306 301 298 296 297 298 295 294 293 292 292 293 292 292 291 291 291 291 290 290 290 289 289 288 288 287 286 286
315 314 314 313 313 312 312 313 313 313 313 314 314 313 308 303 300 299 297 297 295 295 294 293 292 291 292 292 291 290 290 290 291 291 290 289 289 288 288 288 287 286 286 285
316 315 313 313 312 312 313 314 313 313 313 313 313 311 304 301 300 297 294 294 295 294 293 292 291 291 291 290 290 290 290 290 290 290 290 289 289 288 288 287 286 286 285 285
318 312 313 314 313 312 313 314 313 313 309 308 309 304 302 298 295 295 295 295 293 292 291 291 291 290 290 289 289 289 289 290 290 290 289 289 288 288 287 286 285 284 283 283
315 313 314 313 312 311 310 308 307 306 303 302 299 297 295 296 295 296 293 292 292 291 291 290 290 290 289 288 288 288 289 288 288 288 288 288 288 288 287 286 285 284 282 282
310 312 314 309 307 303 301 300 299 298 296 296 295 295 295 295 294 293 292 291 291 291 290 290 290 289 289 288 288 288 288 288 288 288 288 288 288 288 288 287 286 286 285 284
304 308 306 302 301 300 298 296 295 295 293 292 292 293 294 294 293 292 291 290 290 290 290 290 289 289 289 289 288 288 288 288 288 287 287 287 287 287 287 286 285 285 285 284
302 303 301 300 298 296 295 295 295 295 295 295 295 296 295 293 292 292 291 291 290 291 290 290 288 288 289 289 289 289 289 289 288 287 287 287 286 286 287 287 286 285 284 284
302 300 298 297 297 297 297 296 296 297 297 297 297 294 292 292 291 291 291 290 289 289 289 288 288 289 289 289 289 290 290 289 288 287 287 286 286 286 287 287 286 285 285 284
299 298 298 298 297 297 297 296 296 296 295 292 290 290 290 289 290 290 289 289 289 289 289 289 289 289 289 289 289 289 289 288 288 287 287 287 286 286 286 287 286 286 285 284
298 297 297 297 297 296 295 294 293 291 290 290 289 289 289 289 289 289 289 288 288 289 291 291 291 290 289 289 288 287 287 287 286 286 286 287 286 286 286 286 286 285 285 285
295 295 294 293 292 291 292 291 290 291 291 290 289 289 290 290 289 288 288 288 289 290 290 289 289 288 288 288 287 286 286 285 285 285 285 286 286 285 285 285 285 285 285 285
293 292 291 291 291 289 289 289 289 289 289 288 287 287 287 287 288 288 289 291 291 290 290 288 288 288 289 288 287 287 286 285 285 285 285 285 285 285 286 285 285 285 285 285
293 291 289 289 291 290 289 288 286 286 285 285 285 285 285 286 286 286 286 287 287 286 285 286 287 287 288 287 286 286 285 285 285 285 285 285 285 285 285 285 285 285 285 284
292 291 290 288 288 288 287 284 283 284 283 283 284 283 283 284 284 285 285 285 285 284 284 284 285 285 285 285 285 285 284 284 283 283 283 282 282 283 283 284 285 285 284 284
290 287 286 285 284 284 284 282 282 282 281 281 280 280 281 281 282 282 281 282 283 284 284 284 284 285 284 284 283 282 281 280 279 279 278 278 279 279 279 280 281 282 283 284
286 285 284 283 283 283 281 280 280 280 279 279 279 279 279 279 279 279 279 280 280 281 282 283 284 282 280 279 278 277 277 277 275 274 274 275 275 275 275 276 276 277 278 280
283 283 282 280 279 279 278 277 277 278 277 277 277 277 276 277 277 277 278 278 278 278 278 277 274 275 275 274 274 274 274 274 273 272 272 272 272 273 273 272 273 274 276 277
280 279 279 279 277 276 275 274 275 275 275 275 274 274 275 275 275 276 275 275 274 274 274 273 271 270 270 270 270 270 270 270 269 268 269 269 269 269 269 270 271 272 273 274

GFSNGP_925_thetae_039.txt.gz
Theta_e
321 321 321 321 320 321 321 321 323 319 318 316 315 315 317 317 319 321 322 322 321 320 319 316 313 310 307 306 304 303 302 300 300 299 298 297 297 296 295 295 295 294 294 293
324 322 321 321 320 319 318 319 319 318 317 317 318 317 317 316 318 319 321 321 319 318 317 314 311 308 308 306 303 301 300 300 298 297 297 296 296 295 294 294 294 294 294 293
321 318 318 322 320 318 318 318 319 320 319 318 318 317 316 316 317 318 319 319 319 318 316 313 310 308 306 303 301 300 299 298 297 297 296 295 295 294 294 294 294 293 293 292
322 318 326 316 314 314 316 317 317 317 316 316 315 317 317 317 317 318 318 318 318 316 314 312 309 306 302 302 300 299 298 296 296 296 295 294 294 294 294 294 293 293 293 292
328 319 317 315 313 314 314 315 315 315 314 315 316 317 317 317 316 316 317 317 316 315 313 310 305 302 301 299 298 297 296 295 295 294 294 294 294 294 294 293 292 292 292 291
319 328 330 319 315 315 315 317 314 314 314 314 316 318 318 316 315 316 316 315 315 313 310 306 302 300 299 299 298 296 295 294 294 294 293 293 293 293 293 292 292 291 291 291
324 329 324 317 314 315 317 319 316 315 315 316 316 318 318 315 315 315 315 314 313 309 304 302 300 299 300 298 296 294 294 294 293 293 292 292 292 292 292 292 291 290 290 289
327 327 326 314 315 317 320 315 316 316 315 318 318 317 315 315 315 315 314 310 305 303 300 298 299 298 297 296 294 294 293 293 293 292 292 292 292 292 292 291 291 290 289 288
321 321 316 314 314 315 315 315 315 315 316 316 316 316 315 314 313 311 308 303 301 299 299 297 295 295 293 293 294 293 293 292 292 292 292 292 291 291 291 290 290 290 289 288
317 315 315 314 314 314 315 315 315 315 315 315 316 316 315 311 309 305 302 301 300 298 296 296 294 293 293 293 292 292 291 292 292 292 292 292 291 291 290 289 289 289 288 287
317 316 315 314 315 316 315 315 316 316 316 314 315 315 313 307 304 302 298 297 296 296 295 294 293 292 292 292 291 291 291 291 291 291 292 292 291 291 290 289 288 288 288 287
320 316 317 317 316 314 315 314 313 314 312 309 310 309 306 302 298 297 296 295 294 294 293 293 292 292 291 291 291 291 291 291 291 291 291 291 290 289 289 288 288 287 286 285
317 315 316 314 309 308 307 306 306 305 303 302 301 299 297 296 295 294 293 293 293 294 293 292 291 291 291 291 290 290 290 290 290 289 289 288 288 289 289 289 288 287 286 285
311 313 315 308 307 305 303 300 299 297 296 296 295 295 294 294 293 293 294 294 293 293 292 292 291 291 291 291 290 290 290 290 290 290 290 289 289 288 288 289 289 288 287 286
308 308 307 305 303 301 300 299 298 296 295 295 295 295 296 295 295 295 294 293 292 292 292 292 292 291 291 291 291 291 291 291 291 290 290 289 288 288 287 287 288 288 287 286
305 304 302 301 301 300 299 299 298 297 297 297 297 297 297 296 294 293 293 292 292 292 292 291 290 290 290 291 291 292 292 292 291 290 290 289 288 288 288 287 288 288 288 286
303 302 300 301 300 300 300 298 298 298 298 297 294 293 292 292 292 292 292 292 291 290 289 289 290 291 291 291 291 291 292 292 291 290 290 290 289 288 288 287 288 288 288 287
302 301 300 300 299 298 298 297 296 295 294 292 290 290 290 290 291 292 292 291 290 290 290 291 291 292 291 291 291 291 291 291 291 290 289 289 288 288 288 287 287 287 287 287
300 299 298 298 297 296 295 294 293 293 292 291 290 290 290 290 291 290 290 289 289 291 292 292 292 291 291 291 290 290 290 289 288 288 288 287 286 286 287 288 287 287 287 287
296 296 295 293 293 293 293 292 293 293 292 289 288 289 289 289 287 288 288 288 289 291 290 288 287 287 288 289 289 290 289 288 288 288 287 287 287 286 287 287 287 286 286 286
294 293 293 293 292 291 290 289 289 289 288 286 286 286 286 285 287 286 287 287 287 287 286 285 285 285 286 287 287 287 289 288 288 287 287 286 286 286 286 286 286 286 286 286
294 292 291 292 292 291 289 287 286 285 285 284 284 284 283 284 284 285 285 285 284 283 283 283 284 285 284 284 285 286 286 287 287 286 286 285 285 284 284 284 285 285 285 286
294 292 290 289 290 289 286 284 284 284 283 282 282 281 281 282 282 283 284 282 281 281 280 281 282 282 283 284 285 285 285 286 285 283 282 282 281 281 281 281 280 281 282 283
291 290 288 287 286 285 285 284 282 283 281 281 281 280 280 280 280 280 280 279 279 279 279 280 278 277 279 281 282 282 282 281 281 279 279 278 278 278 278 278 277 277 277 278
288 287 285 285 286 285 283 281 281 281 280 280 280 279 279 278 278 278 278 278 277 277 276 276 275 274 275 276 277 276 277 276 275 276 275 276 276 275 276 275 275 275 275 276
287 286 284 282 281 281 280 279 279 279 278 279 278 277 277 277 277 277 276 276 275 275 274 274 273 272 272 272 273 272 273 273 271 271 272 272 272 272 272 272 272 272 273 273
282 282 283 282 280 278 277 277 277 277 277 277 275 276 276 276 276 275 274 274 274 273 273 273 272 271 270 270 270 269 269 269 268 268 268 268 269 269 268 269 269 269 270 271

GFSNGP_925_thetae_042.txt.gz
Theta_e
318 319 320 322 322 321 321 322 325 324 320 318 319 318 318 318 319 319 320 323 323 324 322 321 319 317 313 311 307 306 305 303 302 300 300 299 298 297 297 296 295 295 295 295
325 323 321 321 320 319 319 320 318 319 320 319 318 318 318 317 316 317 318 321 322 322 322 320 318 314 312 308 307 305 304 302 300 299 298 298 297 297 296 295 295 295 294 294
329 321 318 321 320 319 318 319 319 320 320 319 318 317 318 317 317 317 318 318 321 320 320 318 316 313 310 308 306 303 301 300 299 298 298 297 296 295 294 294 294 294 294 294
331 319 326 318 316 314 315 314 315 316 316 315 317 317 317 317 317 318 318 317 318 319 318 317 314 311 309 306 302 300 300 299 297 297 296 296 295 294 294 294 294 293 293 293
330 324 320 318 316 315 315 315 315 314 314 314 315 316 318 317 317 316 316 317 317 317 316 315 312 308 305 302 301 299 298 297 296 295 295 294 294 294 294 294 293 293 292 292
325 330 327 321 315 315 315 320 316 315 316 316 315 321 320 317 316 315 314 315 315 316 314 311 306 303 302 300 299 298 295 295 295 294 294 293 293 293 293 293 293 292 292 291
326 330 327 318 315 315 321 324 317 316 316 317 318 320 318 316 316 315 315 315 314 311 308 304 302 300 300 298 297 296 295 294 294 294 293 293 293 292 292 292 292 292 291 290
331 327 326 315 315 319 321 318 317 316 317 318 318 318 318 315 315 315 314 309 307 303 300 298 298 297 296 296 295 294 294 294 293 293 292 292 292 292 292 292 292 291 291 290
326 327 319 315 315 316 317 316 317 317 316 316 316 315 316 316 314 311 306 304 302 299 298 296 295 294 294 294 294 294 293 292 292 292 292 292 292 292 292 291 290 290 290 289
321 316 316 315 315 317 316 317 316 316 316 317 316 316 315 312 308 303 300 300 298 297 297 296 294 293 294 293 292 292 292 292 292 292 292 292 292 292 292 292 290 290 289 289
318 318 316 318 318 316 316 316 315 315 312 311 313 312 308 305 301 299 297 296 296 295 294 294 294 294 293 292 292 292 291 291 292 291 291 292 292 292 291 290 289 289 289 289
326 318 319 317 312 312 311 310 309 310 306 304 304 302 299 298 296 296 295 295 294 294 294 294 294 293 292 292 291 291 291 291 291 291 291 291 290 290 289 289 289 289 288 288
319 316 316 311 308 307 306 305 304 303 301 300 298 297 296 294 294 294 294 294 294 295 295 294 293 292 292 291 291 291 290 290 290 291 290 290 289 289 289 289 289 288 289 288
312 314 311 310 307 304 302 300 299 299 298 297 297 296 295 295 294 295 295 295 294 293 293 292 292 292 292 292 291 291 291 290 291 290 290 291 290 289 288 288 288 288 287 288
309 309 307 305 303 302 301 299 299 298 297 297 297 297 297 296 296 295 294 293 293 292 292 292 292 291 291 291 291 291 291 291 291 291 292 291 291 290 289 288 288 288 287 288
306 305 304 303 302 301 300 299 299 298 299 298 297 295 294 294 293 293 293 292 292 291 291 290 290 290 291 291 291 291 292 292 292 292 292 291 291 290 289 289 288 288 288 288
304 303 302 301 301 300 299 299 297 297 295 294 293 291 291 291 292 292 292 292 291 290 290 290 291 292 292 292 292 292 292 292 292 292 291 291 290 289 290 289 289 288 287 288
303 302 301 300 299 299 298 296 294 294 292 291 290 290 290 289 291 291 289 289 288 288 291 291 290 289 288 289 289 289 289 290 290 290 290 289 289 288 288 287 287 286 288 287
300 300 299 298 297 296 295 294 293 292 290 289 289 289 288 288 287 287 287 287 288 289 288 287 286 285 285 285 286 287 287 288 288 288 289 288 288 288 287 287 287 287 287 287
298 296 295 294 294 293 292 292 293 291 289 286 287 285 285 285 285 286 285 287 287 284 283 283 283 283 284 285 285 284 284 285 286 286 288 288 288 287 286 286 286 286 286 286
295 294 293 292 291 290 289 288 287 287 286 284 284 284 282 282 284 283 285 285 284 281 281 281 281 282 280 280 280 283 284 284 285 285 286 288 287 286 285 284 284 284 285 285
293 292 292 292 292 289 286 286 285 283 283 282 282 281 281 282 282 283 282 282 280 280 279 279 280 277 276 278 280 281 283 284 285 286 286 285 283 282 281 281 280 280 280 280
293 291 290 290 290 288 285 283 284 283 282 281 282 280 280 280 281 281 281 280 279 277 277 277 276 274 274 276 277 277 278 279 278 279 279 279 279 279 278 278 277 277 277 276
292 291 289 287 286 286 285 283 283 283 281 281 281 280 279 279 279 279 278 277 276 275 275 275 274 273 272 273 273 273 274 274 273 274 274 275 275 275 275 275 274 274 274 275
288 287 286 287 286 285 283 281 282 282 281 280 280 279 278 278 278 277 277 276 275 275 274 274 273 272 271 271 271 271 271 271 270 270 270 271 271 272 271 271 270 271 271 271
288 287 284 283 282 281 280 280 280 280 279 279 278 276 277 277 276 275 275 275 274 273 273 272 272 271 270 269 269 269 268 268 268 267 268 268 268 268 268 268 268 268 268 269
283 284 284 283 280 279 278 278 278 277 277 277 275 275 277 276 275 274 274 273 273 272 272 271 270 270 269 268 268 268 267 266 266 266 265 265 265 265 265 266 266 267 267 268

GFSNGP_925_thetae_045.txt.gz
Theta_e
318 320 320 320 321 321 321 321 320 319 320 318 316 314 314 314 315 316 318 320 319 319 318 320 319 318 315 311 309 306 306 305 304 303 302 299 299 299 297 297 296 295 294 295
323 322 319 317 318 318 317 317 318 317 318 316 315 313 313 312 312 313 313 316 318 319 319 318 317 314 311 307 306 306 305 304 300 299 299 300 299 297 296 296 295 294 294 294
323 315 315 313 316 316 317 317 316 317 315 313 313 314 314 312 313 314 313 314 317 317 318 318 315 312 308 307 306 306 301 299 298 299 299 297 296 296 295 294 294 294 294 293
316 313 312 316 314 313 313 313 312 312 311 312 312 312 312 311 312 312 313 313 314 315 316 315 312 309 307 306 303 300 299 298 297 297 297 296 295 295 294 294 294 294 293 293
314 315 317 316 314 315 314 314 313 313 312 312 312 312 314 312 312 311 311 311 313 314 311 309 307 304 302 301 299 298 298 296 295 295 295 294 294 294 293 293 293 293 293 292
315 316 312 317 314 314 313 316 315 314 314 315 313 313 315 312 312 311 310 308 306 303 302 302 301 301 298 297 295 295 295 295 295 294 294 293 293 293 293 292 292 292 292 292
309 311 316 318 314 314 312 314 315 314 314 314 315 315 313 312 311 307 303 299 298 297 297 297 297 297 296 296 295 295 294 294 294 293 293 293 292 292 292 292 292 292 292 291
316 319 320 313 314 314 316 313 313 313 313 313 313 313 314 311 305 303 299 297 296 295 295 295 295 295 294 294 294 294 295 295 293 293 293 292 292 292 292 292 292 292 290 290
318 317 317 312 315 314 314 314 314 314 314 314 314 314 309 302 300 298 297 297 296 295 295 293 293 294 294 294 294 294 294 293 292 291 291 292 292 292 292 292 292 291 290 290
314 317 314 317 315 315 314 314 311 309 308 310 310 304 301 300 298 297 296 296 296 295 295 294 294 294 294 293 293 292 292 291 292 292 292 292 291 292 292 292 290 290 290 289
315 317 316 313 313 312 310 309 305 303 303 302 301 301 299 298 297 296 295 295 295 294 294 294 294 294 294 293 292 292 292 291 291 291 291 291 292 291 291 290 289 289 289 288
314 315 314 310 307 306 305 305 304 302 300 299 298 297 297 297 296 295 294 294 294 294 294 294 294 293 292 292 292 291 291 291 290 290 290 291 290 290 289 289 289 289 289 288
316 311 308 305 303 302 302 301 300 299 298 297 296 295 294 293 294 294 294 294 294 294 293 293 292 292 292 292 292 291 291 291 290 290 290 290 290 290 289 290 289 288 288 287
310 308 307 305 303 300 299 299 298 297 296 295 295 295 295 294 295 295 295 293 293 292 292 292 291 291 290 290 290 291 291 291 291 291 291 291 290 290 290 289 289 288 289 288
306 306 304 302 300 299 298 297 297 296 296 296 296 296 295 293 293 292 292 292 291 290 290 290 290 290 291 291 291 291 291 291 291 291 291 291 290 290 290 289 289 288 288 288
304 303 302 301 300 298 298 297 296 295 295 293 292 291 291 292 292 292 291 290 289 288 288 289 290 289 289 289 289 289 289 289 289 289 289 290 290 290 289 289 289 288 288 287
302 302 301 301 300 299 298 297 295 294 292 290 288 289 289 290 290 288 287 286 286 288 289 288 285 285 285 285 285 285 285 286 286 287 287 288 288 289 289 289 288 288 288 286
302 301 300 298 298 297 295 293 291 290 289 288 287 287 286 285 286 286 285 286 287 286 284 283 282 281 281 282 283 282 283 283 283 283 284 284 285 286 288 288 288 287 286 286
300 299 299 298 295 294 293 291 289 287 287 286 286 286 284 284 285 283 285 285 282 281 281 280 279 280 280 279 278 278 279 281 281 282 283 284 284 285 287 287 287 287 286 286
295 294 293 292 292 291 290 289 287 284 284 284 282 281 281 283 282 283 283 283 280 279 279 278 279 277 276 275 277 278 279 280 280 282 283 284 284 284 285 286 285 283 282 282
293 291 290 289 288 287 286 286 285 283 283 281 280 280 281 281 282 282 281 280 279 277 276 277 275 274 273 274 275 275 275 276 277 277 279 279 280 280 281 280 279 278 278 278
292 291 290 288 286 285 284 283 282 281 281 281 280 280 280 280 280 280 280 278 277 275 275 275 274 273 272 272 272 272 272 273 272 273 273 275 276 276 277 276 275 275 275 275
291 290 289 287 285 283 284 283 281 281 281 280 280 279 279 279 279 278 278 277 275 274 274 274 273 272 271 270 270 270 270 270 269 269 270 271 271 272 272 271 271 271 271 272
290 288 286 286 285 283 282 282 282 280 280 280 279 278 278 278 277 276 276 275 274 274 273 272 272 271 270 269 269 268 268 268 267 267 267 268 268 268 268 268 268 268 269 269
288 287 286 285 283 282 280 281 281 279 279 279 277 276 277 277 276 275 274 274 274 273 272 271 271 270 269 268 268 267 267 266 266 266 265 265 266 265 266 266 266 267 267 267
285 283 282 281 280 279 279 279 279 277 278 277 276 275 276 276 275 274 273 272 272 272 271 270 269 269 268 268 267 267 266 265 265 265 264 263 263 263 263 264 264 265 265 266
283 283 280 279 278 278 278 277 276 276 276 275 274 274 275 274 274 273 271 270 270 270 269 269 268 267 267 267 266 266 265 264 264 264 263 262 261 261 262 262 263 263 263 263

GFSNGP_925_thetae_048.txt.gz
Theta_e
317 318 319 319 319 319 319 318 317 317 317 316 315 313 311 311 314 317 320 320 319 317 315 317 319 319 315 312 309 308 308 306 306 304 302 301 300 298 299 297 296 296 294 294
320 318 317 317 316 316 317 317 317 317 317 310 312 311 311 310 312 312 314 317 317 317 317 317 317 314 311 309 308 308 307 305 304 301 299 299 300 298 297 296 295 294 294 294
319 313 315 315 316 315 316 315 316 314 313 311 312 311 310 311 311 312 312 315 318 317 317 316 315 313 308 307 306 305 303 301 299 299 299 298 296 295 295 295 294 294 294 294
314 311 315 317 315 314 312 312 310 310 311 312 312 311 310 309 309 310 311 312 312 313 313 313 312 308 306 305 303 299 298 297 297 296 295 295 295 296 294 294 294 294 293 294
312 314 316 316 312 311 312 314 312 312 313 311 312 312 312 311 309 308 308 304 302 303 303 304 304 303 301 298 297 296 295 295 295 295 295 296 296 294 294 293 293 293 292 293
313 313 313 314 313 311 312 314 313 313 315 315 312 313 313 309 303 300 299 298 298 298 298 298 297 297 296 295 295 295 294 295 295 297 298 297 294 293 293 292 292 292 292 292
306 309 311 313 312 312 311 311 313 312 312 313 315 312 309 301 299 298 297 296 296 295 295 296 296 295 295 294 295 296 297 298 299 297 294 293 293 293 292 292 292 292 292 291
311 310 314 315 313 313 310 312 311 311 311 312 311 307 303 300 298 297 296 295 295 295 295 295 296 296 295 296 297 298 298 295 294 293 293 293 292 291 292 292 292 292 291 291
315 314 314 314 314 312 312 313 313 312 312 311 305 302 300 298 297 296 295 295 294 294 295 295 295 296 295 294 294 294 293 293 292 292 291 291 291 291 291 291 291 291 291 290
314 316 316 314 313 311 309 306 305 306 306 305 302 300 298 297 296 296 296 296 295 294 294 293 293 293 293 293 293 292 292 291 291 291 291 291 291 291 291 291 291 290 289 289
316 314 313 311 309 306 304 303 302 301 301 301 299 298 297 297 297 296 294 294 294 293 294 294 294 293 293 292 292 292 291 291 291 290 290 290 289 290 291 290 290 290 289 288
312 314 311 308 305 305 304 303 301 299 298 298 297 297 296 295 294 294 294 294 294 294 294 293 292 292 291 291 291 291 291 291 291 291 290 290 289 289 290 290 290 290 289 289
313 308 305 303 301 301 300 299 298 297 296 295 294 294 293 293 294 294 294 292 292 291 291 291 290 290 290 290 290 290 290 290 290 290 290 290 290 289 288 290 290 290 290 289
305 304 304 303 301 299 298 297 296 295 294 294 293 293 293 293 292 291 290 290 290 290 289 289 290 289 289 289 290 289 289 289 289 288 288 288 288 288 288 288 288 289 289 289
304 304 302 299 298 297 296 296 295 295 293 293 293 292 291 291 291 289 288 288 288 288 288 287 286 286 285 285 285 284 284 285 285 286 286 287 287 287 287 288 288 288 288 288
301 300 299 298 297 297 296 295 294 292 291 290 290 290 290 290 288 286 285 287 286 286 286 285 282 281 281 282 282 282 282 281 281 282 282 283 283 283 284 285 286 287 287 287
300 299 298 298 297 296 295 294 292 291 289 287 287 287 287 286 285 284 285 286 286 284 282 280 279 280 280 280 278 278 278 278 279 280 280 281 281 282 282 283 284 285 286 287
300 299 299 298 297 295 293 291 289 288 288 287 285 284 285 285 284 284 284 283 282 281 279 278 279 278 277 276 276 277 277 277 278 279 279 279 281 282 283 283 284 284 285 286
299 299 297 296 294 292 290 288 287 286 285 285 283 283 283 282 282 282 282 281 279 278 277 277 277 275 274 274 275 275 275 275 275 275 276 276 278 279 279 278 280 283 283 282
295 294 293 292 291 289 286 285 285 284 281 280 281 282 281 281 281 282 280 278 276 276 276 276 274 273 272 272 273 272 272 273 271 272 272 273 274 274 276 276 275 275 275 275
292 291 289 288 287 287 285 284 283 281 280 280 281 280 280 280 280 280 279 278 276 274 274 274 273 271 271 270 271 270 270 270 269 269 269 270 270 271 271 271 271 271 272 272
290 288 287 286 285 284 283 282 282 281 280 280 279 279 279 279 279 278 277 276 275 274 274 273 272 271 270 269 269 268 268 267 267 267 267 267 267 268 268 268 268 269 269 269
289 287 286 285 284 283 282 281 281 281 279 279 278 278 278 278 277 276 276 275 274 273 272 272 271 270 269 269 268 267 267 266 266 265 265 265 265 266 265 266 266 266 267 267
289 287 285 283 283 283 282 280 280 280 279 278 277 277 278 277 276 275 274 274 273 272 271 271 270 269 269 268 267 267 266 265 265 264 264 263 263 263 263 263 264 265 265 265
287 286 284 283 282 281 282 280 279 279 278 276 276 275 276 276 275 274 273 272 271 271 270 270 269 268 267 267 266 266 265 264 264 263 263 262 262 262 262 262 262 263 263 263
284 282 281 280 279 279 279 278 277 277 277 276 275 274 275 274 274 273 272 271 270 270 269 269 268 267 266 266 266 265 264 264 263 263 262 262 261 261 261 261 261 261 262 262
280 279 279 278 277 277 277 276 275 275 275 274 274 274 274 273 272 271 270 269 268 268 268 267 266 266 265 265 265 264 264 263 262 262 261 261 261 260 260 260 260 261 261 261

GFSNGP_925_thetae_051.txt.gz
Theta_e
316 316 316 317 317 317 318 316 317 316 316 315 313 312 309 308 311 314 318 319 318 316 317 319 319 318 315 314 312 310 306 306 305 305 306 306 300 300 298 297 297 296 295 294
320 317 317 318 316 315 315 316 316 316 315 312 311 310 310 310 311 313 316 317 317 316 315 316 317 314 311 310 308 308 307 306 306 305 302 300 298 299 299 296 295 295 295 294
317 313 315 315 314 315 315 314 314 314 312 311 312 311 310 311 311 312 313 315 316 315 314 315 314 312 309 308 308 307 306 304 303 300 298 297 295 295 295 297 298 296 294 294
312 311 313 315 313 314 313 311 309 310 310 311 310 310 309 308 309 310 309 307 306 309 309 310 309 308 306 306 304 302 299 298 298 296 295 296 297 299 299 298 296 294 293 293
313 314 313 316 311 311 312 313 312 310 310 311 311 311 310 306 303 302 300 298 298 300 301 302 302 301 300 298 297 296 295 295 295 296 298 299 298 298 296 294 293 293 292 292
308 314 316 315 313 310 311 313 311 311 311 311 311 310 311 302 300 298 296 296 296 296 296 297 296 296 295 294 294 294 295 296 298 299 299 298 296 293 293 292 292 292 292 292
307 311 312 311 311 310 312 311 311 311 312 311 311 308 302 298 296 295 295 295 295 295 294 294 295 295 295 295 296 297 297 298 299 298 295 293 293 292 292 292 291 291 291 292
309 308 317 311 311 310 309 310 310 310 310 309 304 301 299 297 296 295 294 295 295 295 294 295 296 297 297 297 298 298 296 295 295 293 293 292 292 291 291 291 291 291 291 291
314 313 312 313 312 311 310 311 310 310 309 304 301 299 298 297 296 295 294 294 294 294 294 295 295 295 294 294 294 293 293 292 292 291 291 291 291 291 291 291 290 290 291 291
315 316 315 312 308 307 308 307 307 308 304 302 300 298 297 296 295 295 295 294 294 294 293 293 293 293 293 293 292 292 291 291 291 290 290 290 290 290 289 289 290 291 290 290
314 313 312 309 305 304 303 302 301 300 301 299 298 297 296 295 294 294 293 293 293 293 293 292 291 290 290 290 291 290 290 290 290 290 290 289 289 289 289 290 289 289 289 289
313 313 312 309 304 303 302 301 300 299 298 297 297 296 294 293 294 294 293 293 292 291 290 289 290 290 290 290 290 290 290 289 289 288 287 287 287 288 288 288 288 288 288 288
313 311 305 303 301 300 300 298 297 297 296 295 294 294 293 292 293 292 291 290 289 289 289 289 288 287 286 286 286 285 284 284 284 284 284 285 285 286 286 286 286 286 287 287
304 304 303 301 300 298 297 296 295 294 293 293 292 292 291 290 290 289 289 288 288 288 286 286 284 282 282 283 283 282 281 281 280 280 281 282 282 283 283 283 283 283 283 285
303 303 301 298 297 296 295 295 294 293 292 291 291 290 290 289 287 286 286 287 286 286 283 282 281 281 281 280 279 278 278 278 278 279 279 280 280 280 280 281 281 282 282 283
299 298 298 297 296 295 295 293 292 290 290 290 290 290 288 286 285 286 286 286 285 282 280 280 280 279 278 277 276 277 277 277 277 277 278 279 278 279 280 281 281 281 282 282
299 298 297 296 296 295 294 292 291 289 289 289 288 286 285 285 285 284 283 282 281 279 279 278 277 276 275 275 275 275 275 275 275 276 276 276 276 277 278 278 277 277 277 280
300 298 297 297 296 293 291 290 289 288 287 286 285 284 284 284 283 281 281 280 279 278 278 276 275 274 274 274 274 274 273 273 272 272 273 272 273 274 275 275 274 274 274 274
299 299 297 295 293 291 289 288 288 286 284 284 283 282 282 282 282 280 279 278 277 277 277 275 274 273 272 272 272 271 272 271 270 270 270 270 270 270 271 270 271 271 271 272
296 295 293 291 289 288 287 286 285 283 282 282 281 281 280 281 281 280 279 276 275 275 276 274 273 272 271 270 270 269 270 268 268 268 268 267 267 268 268 267 267 268 268 269
293 291 289 287 286 286 285 283 281 281 281 281 281 280 279 280 280 279 278 277 275 274 274 273 272 271 270 269 268 268 267 267 266 266 266 265 265 266 265 265 265 266 266 267
290 289 287 286 285 284 283 282 280 280 280 279 279 279 278 278 277 276 276 275 274 273 273 272 271 270 269 269 268 267 266 266 265 265 264 264 264 263 263 263 263 264 264 265
288 287 286 285 284 282 282 280 280 279 279 278 278 278 278 277 276 276 276 274 274 273 272 271 270 269 268 268 267 266 266 265 264 264 263 263 263 262 262 262 262 262 262 263
286 285 285 283 281 281 281 280 279 279 278 277 277 278 277 276 275 275 274 273 272 272 271 270 269 268 267 267 266 266 265 264 264 263 263 262 262 262 261 261 261 261 261 262
285 284 283 283 283 282 281 280 279 278 277 275 275 276 277 276 275 273 273 271 271 270 270 269 268 267 266 266 266 265 265 264 263 263 262 261 261 261 261 261 261 261 261 261
284 283 282 281 281 280 279 278 278 277 276 274 274 275 275 274 273 272 271 270 269 269 268 268 267 266 265 265 265 265 264 263 263 262 261 261 260 260 260 260 260 260 260 260
280 279 278 278 277 277 276 276 276 275 275 274 274 274 274 273 272 271 269 268 268 267 267 267 266 265 265 264 264 264 263 263 262 261 261 260 260 260 260 260 260 260 260 260

GFSNGP_925_thetae_054.txt.gz
Theta_e
314 314 315 315 316 315 316 315 317 316 314 314 313 310 308 306 307 310 313 318 318 317 317 319 320 319 318 317 314 313 311 308 305 305 304 303 302 302 301 301 298 297 297 295
318 316 315 318 316 314 314 315 314 314 314 311 310 310 310 310 312 314 315 314 314 316 315 316 316 313 313 313 311 309 308 306 305 304 303 303 303 300 298 296 295 295 296 295
318 313 315 315 315 314 314 313 314 315 313 309 311 311 310 309 310 311 310 309 311 311 311 313 312 311 309 308 307 307 306 305 304 303 300 298 298 296 295 296 298 298 296 296
311 311 314 316 313 313 313 312 310 308 310 309 309 308 306 304 308 304 302 301 301 303 303 304 306 306 306 305 304 302 300 299 298 297 296 296 298 299 299 299 298 296 294 293
314 314 313 314 311 311 312 311 309 308 309 309 309 309 307 301 299 298 297 296 295 296 297 299 299 299 300 298 297 297 296 295 296 298 299 299 299 298 299 296 294 293 293 292
308 312 313 312 312 308 309 311 309 309 310 310 309 309 308 299 297 295 295 295 294 294 295 295 295 296 296 295 295 295 296 297 298 298 299 299 298 295 293 293 292 292 292 291
305 310 313 312 311 309 312 312 308 309 309 309 309 305 299 296 295 294 294 294 294 295 294 295 295 296 296 296 297 297 298 299 299 298 296 294 293 292 292 291 291 291 291 291
308 309 318 310 309 311 309 309 308 309 308 308 301 298 297 296 294 294 293 294 294 294 294 295 296 296 297 297 297 296 295 294 293 293 292 291 291 290 290 290 290 290 290 290
316 316 312 310 310 309 307 309 309 309 307 303 300 298 297 295 294 293 293 293 293 293 293 294 295 294 293 293 292 292 291 291 290 290 290 290 289 289 289 289 289 288 288 288
314 315 314 313 309 308 309 309 308 307 303 301 299 297 296 294 294 293 292 293 293 293 292 291 291 291 290 291 291 290 290 290 290 290 289 289 289 289 288 288 288 287 287 287
313 313 312 311 306 305 303 303 302 300 300 299 297 296 295 294 293 292 292 293 293 291 289 289 289 289 289 289 290 289 288 287 286 285 284 284 283 284 284 284 285 286 286 286
314 314 313 311 304 303 303 301 300 299 297 296 296 295 293 292 292 292 292 291 289 289 288 287 287 286 286 286 286 285 284 282 281 280 280 281 282 282 281 281 282 282 283 283
314 311 305 303 300 300 300 298 298 297 296 295 294 293 292 291 290 290 290 289 288 287 286 284 283 283 283 282 281 280 279 279 279 279 279 280 279 279 279 279 280 280 281 281
304 304 303 303 301 297 297 296 295 293 293 292 291 291 290 289 289 289 288 287 286 284 283 282 281 281 280 279 278 278 278 278 277 277 278 278 278 278 278 279 279 280 278 278
302 301 302 298 296 295 294 294 293 292 291 290 290 289 289 288 287 286 286 285 283 282 281 280 279 278 277 277 277 277 276 276 276 276 277 277 277 276 276 277 278 276 276 276
299 298 298 296 295 295 294 293 292 291 290 290 289 288 286 285 285 286 285 284 282 280 279 278 277 276 276 276 276 275 275 275 274 274 274 274 273 274 275 276 274 274 274 273
298 297 296 296 295 294 293 292 291 291 291 290 287 285 285 285 284 282 281 280 279 279 277 276 275 275 274 274 274 274 273 273 272 272 271 271 271 271 271 271 271 271 271 271
299 297 297 295 294 292 291 291 290 290 289 287 285 284 284 284 283 281 279 278 278 277 276 275 274 273 273 272 272 271 271 271 270 270 269 269 269 269 269 268 268 268 267 268
298 296 295 294 292 291 290 289 288 286 284 284 283 282 283 282 281 279 278 277 277 277 275 274 273 272 271 271 270 270 269 269 269 268 267 267 267 267 266 266 266 266 266 266
296 295 292 291 290 289 288 286 285 284 282 282 282 281 281 280 279 278 277 276 275 276 275 273 272 271 270 270 269 268 268 267 267 266 266 265 265 265 264 264 264 264 264 264
292 291 290 289 287 286 285 283 283 282 281 281 281 280 280 279 279 278 277 276 275 274 274 272 272 271 270 269 268 268 267 266 265 265 264 264 263 263 263 263 263 263 263 263
289 288 286 286 284 283 282 281 281 280 280 280 279 279 279 277 277 276 276 275 274 273 273 272 271 270 269 268 268 267 266 265 265 264 264 263 262 262 262 262 262 262 261 262
287 286 285 284 283 281 280 279 279 279 279 279 278 278 278 277 277 276 276 274 273 273 272 271 270 270 269 268 267 266 266 265 264 263 263 262 262 261 261 261 261 261 261 261
286 285 283 282 281 281 280 279 279 278 278 278 278 278 277 276 275 274 274 273 272 272 271 270 269 268 267 267 266 266 265 264 263 263 262 262 261 261 261 261 261 261 260 260
284 283 282 282 282 281 280 279 277 277 276 276 276 277 276 275 275 274 273 272 271 270 269 269 268 267 266 266 265 265 264 264 263 262 262 261 261 260 260 260 260 260 260 260
284 283 282 281 280 280 279 279 278 276 275 274 274 275 275 274 273 272 271 270 269 269 268 268 267 266 265 265 264 264 264 263 263 262 261 261 260 260 260 260 260 260 260 260
279 279 278 276 276 277 277 277 276 274 274 274 274 274 273 273 272 271 270 269 268 267 266 266 266 265 265 264 264 263 263 262 262 261 261 260 260 259 259 259 259 259 259 260

GFSNGP_925_thetae_057.txt.gz
Theta_e
315 314 316 318 320 319 320 321 323 322 317 318 317 316 312 311 313 318 318 317 319 321 323 323 322 321 318 316 317 316 314 311 308 308 307 304 302 302 302 303 301 300 298 297
317 315 315 316 316 317 318 317 317 316 317 315 313 311 313 314 317 318 317 316 316 316 318 319 317 315 312 311 310 310 309 307 305 303 302 302 301 301 300 300 298 296 296 296
320 315 316 319 318 316 316 315 318 319 319 313 313 313 312 313 314 313 311 311 312 311 311 312 311 309 309 308 307 306 305 303 301 301 301 300 299 298 295 294 295 296 298 298
318 313 323 320 313 314 317 316 313 312 312 311 312 310 308 307 309 306 305 306 305 306 305 305 305 304 303 302 302 300 299 298 299 298 297 297 297 298 297 297 298 298 297 296
321 320 317 314 313 315 317 317 313 313 310 311 310 310 308 302 301 301 300 299 299 299 300 300 300 300 300 299 299 297 296 297 298 299 299 298 298 298 298 298 296 294 293 292
313 320 322 319 313 310 312 317 312 311 312 313 312 318 315 302 299 298 297 297 297 297 297 298 298 298 298 297 297 298 298 299 298 299 299 299 297 294 293 293 292 292 291 291
314 321 318 312 312 310 319 319 312 311 312 314 314 311 305 299 298 297 297 296 296 297 297 296 297 298 298 298 298 298 299 298 298 297 295 293 292 292 291 290 290 290 290 289
314 318 322 312 309 316 318 310 312 311 312 312 304 301 300 298 297 296 296 296 296 296 296 296 297 298 298 296 295 294 294 293 291 290 290 290 289 289 289 289 289 289 289 289
319 322 316 311 315 311 309 313 311 312 310 305 302 300 299 297 296 296 295 295 295 295 294 294 294 294 293 291 291 291 290 289 289 289 289 289 288 288 288 288 287 287 287 287
317 316 315 313 312 310 310 311 309 310 307 304 302 299 297 296 295 295 295 294 294 293 292 291 290 289 289 290 290 290 288 288 287 286 285 285 284 284 284 284 284 284 284 284
316 315 314 314 312 310 308 307 305 304 303 302 300 298 296 295 295 294 294 292 292 291 290 289 287 286 287 287 287 287 286 284 283 282 282 282 282 282 281 282 282 282 282 282
320 317 318 317 313 307 307 306 304 302 300 299 299 297 296 295 294 293 292 291 291 289 287 285 284 283 283 283 283 283 282 281 280 280 280 280 280 280 279 279 279 280 280 279
316 314 307 305 303 304 304 302 301 301 299 298 296 295 294 293 292 290 290 290 288 285 283 283 282 281 280 280 279 279 279 279 279 279 279 279 279 279 279 279 278 279 277 277
306 307 307 304 306 301 300 299 297 296 295 295 294 293 292 291 290 290 289 287 284 283 282 282 281 279 278 278 278 278 278 277 277 278 278 277 277 277 277 277 278 277 276 275
305 303 305 300 298 297 296 296 295 294 293 293 292 291 291 290 289 288 285 283 282 282 281 279 278 277 277 277 277 277 277 276 276 276 275 275 275 275 275 275 275 274 274 273
300 299 299 300 298 296 296 295 294 293 293 292 291 290 289 288 287 284 282 282 282 280 278 277 277 276 276 276 276 275 275 274 273 274 274 273 273 273 273 273 272 272 272 271
300 299 298 298 297 296 295 295 294 293 292 291 288 287 286 285 284 282 281 280 278 277 276 276 275 275 275 274 274 274 273 273 271 272 271 271 271 271 271 270 270 270 270 269
300 299 298 296 296 294 293 293 292 291 289 287 286 285 285 284 283 281 279 278 277 276 275 274 274 273 273 272 272 271 271 270 270 270 269 269 268 268 269 268 268 268 268 267
298 297 296 294 293 292 291 290 288 286 285 285 284 284 283 282 281 279 278 278 277 277 275 274 273 272 271 270 270 269 269 268 268 268 267 266 266 266 266 266 266 266 266 266
295 293 292 291 290 290 288 287 286 284 284 283 283 282 281 279 278 277 277 277 277 276 274 273 272 271 270 270 269 268 267 267 266 266 265 265 264 264 264 264 263 264 264 264
292 291 290 289 287 286 286 285 284 283 282 282 282 281 280 278 278 277 277 277 275 274 273 272 271 270 270 269 268 268 267 266 265 265 264 263 263 263 262 262 262 262 262 262
289 287 286 285 285 284 283 283 282 281 281 281 280 279 278 277 277 277 276 276 275 274 273 272 271 270 269 268 268 267 266 265 265 264 263 262 262 261 261 261 261 261 261 261
286 285 284 283 283 282 281 280 280 280 279 279 279 278 278 277 277 276 276 274 273 273 272 271 270 270 269 268 267 266 266 265 264 264 263 262 260 260 260 259 259 259 259 259
285 284 282 281 281 281 280 279 279 278 278 278 278 278 277 276 275 274 274 273 272 272 271 270 269 268 268 267 266 265 265 264 264 263 262 262 261 261 260 260 260 259 259 259
284 283 283 283 282 281 279 278 278 277 277 277 276 276 276 275 275 273 273 272 271 270 269 269 268 267 267 266 265 265 264 264 263 263 262 261 261 260 260 259 259 259 260 259
282 281 280 280 280 279 279 278 277 276 275 275 274 274 274 274 273 272 271 270 269 269 268 267 267 266 266 265 264 264 264 263 263 262 261 261 260 260 259 259 259 259 259 259
278 278 278 277 276 276 276 276 276 274 274 274 273 273 273 272 271 271 270 269 268 267 267 266 266 265 265 264 264 263 263 262 262 261 261 260 259 259 259 259 259 259 259 260

GFSNGP_925_thetae_060.txt.gz
Theta_e
319 318 318 318 318 319 320 320 320 321 319 321 321 322 321 318 318 321 322 320 322 327 329 329 329 328 323 318 317 317 314 311 309 308 307 306 305 304 303 302 301 301 301 299
320 319 318 318 318 318 319 319 322 321 321 321 321 319 318 318 321 322 323 322 322 324 326 325 324 322 320 318 316 313 311 307 305 304 303 302 302 302 302 300 299 299 298 298
321 320 320 322 321 319 319 321 322 322 321 320 321 319 319 320 321 320 320 319 320 321 321 320 318 317 316 314 313 311 308 306 305 305 304 303 301 298 297 297 297 298 297 297
322 321 331 320 320 320 320 320 321 320 320 319 319 319 317 318 319 317 316 316 316 316 315 314 313 312 311 310 308 306 305 304 302 301 299 299 299 298 298 297 297 297 298 297
331 324 321 319 317 320 321 321 321 321 320 319 316 315 314 311 314 313 312 311 310 310 310 310 309 308 307 305 303 302 302 301 301 301 300 299 299 298 298 297 298 296 296 295
321 326 332 320 320 319 319 323 320 319 318 317 316 320 319 310 308 307 307 307 307 307 307 307 307 306 305 304 303 303 302 301 301 301 300 299 298 296 297 296 295 294 293 293
325 328 324 320 317 316 322 324 320 319 319 318 318 319 315 308 307 306 305 305 305 306 305 305 305 304 304 303 302 301 300 299 298 297 297 296 295 294 293 293 292 293 292 292
325 331 330 316 315 320 322 321 320 319 319 319 316 311 309 307 305 304 304 303 303 304 303 303 303 303 303 301 299 298 297 294 294 293 292 292 293 293 292 292 292 292 290 289
323 325 323 317 321 319 319 320 318 319 318 318 311 309 307 305 304 304 303 303 303 302 302 301 300 300 298 296 296 295 294 293 292 291 291 290 291 290 289 288 287 287 287 287
322 321 320 319 317 317 316 317 316 316 316 313 311 308 306 304 303 303 302 301 300 299 297 296 295 295 294 293 293 292 292 291 290 287 288 286 286 285 286 286 285 285 285 285
323 322 318 318 319 318 316 314 314 314 314 312 309 307 304 303 302 302 301 299 298 297 296 293 292 290 290 291 291 290 288 287 286 285 285 285 284 283 283 283 281 282 283 282
325 322 323 322 320 320 317 315 314 313 312 310 307 305 303 302 301 300 298 297 296 294 291 289 287 286 286 287 287 286 285 284 283 284 283 283 283 283 281 279 279 280 279 278
321 320 320 314 311 315 316 315 312 311 310 308 305 303 302 301 299 297 296 295 293 290 287 285 284 284 284 283 283 283 283 282 282 282 282 282 282 282 282 281 279 279 277 276
317 315 317 313 316 310 310 310 307 308 306 305 303 301 300 299 295 296 295 291 288 287 285 283 283 282 282 282 281 281 280 279 281 281 280 280 280 280 280 280 280 279 278 275
315 313 313 311 309 307 306 305 305 304 303 301 300 299 297 296 296 293 290 287 286 285 284 283 282 281 280 280 280 280 280 279 279 279 278 277 278 278 278 278 277 277 277 276
313 309 308 309 308 305 304 304 304 301 300 299 298 297 296 294 291 288 286 285 285 284 282 279 279 279 279 279 279 279 278 275 276 277 277 276 276 276 276 276 276 275 275 274
310 309 308 307 306 304 304 303 302 300 299 298 296 294 292 289 287 286 283 281 280 279 278 278 278 277 277 277 277 277 277 276 273 275 275 274 274 274 274 274 274 273 273 273
307 307 306 306 304 302 300 300 298 297 295 292 289 287 286 285 283 282 280 279 278 277 277 276 276 275 274 274 274 274 274 273 274 273 273 273 271 272 272 272 272 272 272 271
303 303 302 301 300 299 297 295 292 289 287 287 286 285 283 282 282 280 279 278 278 277 276 275 274 274 273 272 272 272 272 272 272 271 271 270 271 271 271 270 270 270 270 270
294 294 294 293 292 291 290 288 288 287 286 285 284 283 282 280 280 280 280 280 279 277 275 274 273 273 272 270 271 271 271 271 270 270 270 269 270 269 269 268 268 268 268 268
291 290 289 289 288 287 286 286 285 285 284 284 283 282 281 279 279 278 279 278 276 275 274 273 273 273 271 271 270 270 270 270 270 269 269 269 268 268 268 267 267 267 267 267
288 288 287 287 286 285 284 284 283 283 282 282 281 280 279 279 279 278 278 278 276 274 274 274 272 271 270 270 270 270 270 269 269 268 268 268 267 267 266 266 266 266 265 265
287 287 286 285 284 283 282 282 282 281 281 281 281 281 280 279 279 279 278 276 275 274 274 273 271 270 269 270 269 269 269 268 268 267 267 266 266 265 265 264 264 263 264 264
285 284 284 283 283 283 283 281 281 280 279 279 279 279 279 278 277 276 275 274 273 273 273 271 270 269 268 269 268 268 268 268 267 267 266 265 265 264 264 263 263 262 262 262
285 284 284 283 282 281 280 280 279 279 278 278 277 277 277 276 278 275 274 272 271 272 271 269 268 267 268 268 267 267 267 266 266 265 265 265 264 263 263 262 261 261 260 260
282 282 281 281 281 280 280 279 279 278 278 277 276 276 275 274 273 273 272 271 270 269 269 269 268 267 267 267 266 266 265 266 265 265 264 263 263 262 262 261 260 260 260 259
279 279 279 278 277 278 278 278 278 277 276 277 276 275 274 273 272 271 270 270 269 268 268 267 267 266 265 265 265 265 265 264 263 262 262 262 262 261 260 259 259 258 258 258

GFSNGP_925_thetae_063.txt.gz
Theta_e
320 320 320 320 320 320 322 322 324 322 321 320 320 321 322 323 322 322 323 322 322 327 328 330 331 329 325 320 319 318 315 313 311 310 309 307 306 305 303 302 302 302 301 301
320 319 319 319 318 319 318 318 319 319 319 320 320 319 321 321 321 323 324 324 324 326 330 331 330 325 319 316 314 312 310 308 306 305 304 303 303 303 302 301 300 300 300 300
324 320 320 324 319 319 319 319 319 320 320 320 321 320 320 321 322 323 324 324 325 327 328 327 325 322 319 316 313 311 309 308 307 307 306 305 304 302 301 300 300 300 299 299
327 326 329 321 320 320 320 319 319 320 319 320 320 320 321 321 323 323 322 323 324 324 322 322 321 319 317 316 313 312 310 309 308 306 304 303 302 302 300 298 298 298 298 298
330 328 321 320 320 320 320 320 320 319 319 319 320 321 320 319 321 320 320 320 319 319 318 317 315 314 312 311 310 308 307 306 305 304 304 302 301 299 300 299 299 300 299 299
327 327 329 321 320 320 320 324 321 320 320 320 321 323 320 318 319 317 315 314 315 315 314 314 312 311 310 309 308 307 306 305 304 304 303 302 301 300 300 300 298 297 296 295
328 328 323 320 320 320 325 325 320 320 320 320 321 321 321 317 315 313 313 312 312 313 312 311 310 310 309 308 307 305 304 304 302 300 300 300 299 298 296 295 294 295 294 294
328 332 331 320 319 322 324 322 322 322 321 321 322 320 317 315 313 312 312 310 311 310 310 309 309 308 307 306 304 303 302 299 298 297 295 296 295 295 294 294 294 293 291 290
325 325 323 320 322 321 322 323 323 323 321 322 321 317 315 313 312 311 310 309 309 309 308 308 308 307 305 303 301 299 298 297 295 294 293 293 293 292 291 290 290 289 288 288
325 323 322 322 321 321 321 322 322 321 321 321 320 316 314 312 311 310 309 308 308 307 307 305 303 302 300 299 298 297 296 294 292 292 290 289 289 288 288 288 287 286 287 287
320 319 318 322 322 321 321 321 320 318 319 320 318 315 313 311 310 309 308 307 306 304 302 301 299 298 297 296 296 294 292 290 289 288 288 288 287 286 285 283 282 283 285 283
324 319 323 322 322 323 323 322 319 318 318 318 316 314 312 310 309 308 306 304 303 301 299 297 295 294 294 293 292 290 289 288 287 287 286 286 286 285 282 282 280 279 279 278
319 319 320 322 317 317 321 321 320 318 317 316 314 312 310 309 307 305 304 303 301 298 295 292 290 289 288 288 288 288 287 286 284 285 285 285 284 284 285 282 281 280 279 278
317 318 320 320 319 316 316 318 315 316 315 314 312 310 308 307 304 303 302 300 297 293 290 289 287 286 285 285 284 283 283 283 285 284 284 283 283 283 283 282 282 282 280 278
317 319 319 318 315 314 313 313 313 313 312 311 309 307 306 304 302 301 298 294 291 289 287 286 285 284 284 283 283 283 283 283 283 282 281 280 280 281 281 280 281 280 279 279
317 318 318 315 315 314 312 311 312 310 309 308 307 305 303 301 299 294 292 290 289 287 284 282 282 282 282 282 282 281 279 277 279 280 279 279 279 279 279 279 279 279 278 278
317 317 315 314 314 312 310 309 309 307 306 305 303 301 299 294 291 289 285 283 282 281 281 281 280 279 279 280 280 280 280 278 276 278 278 277 277 277 277 277 277 277 276 276
312 311 310 311 312 309 308 307 305 304 301 298 293 291 290 287 285 283 281 280 279 279 278 278 277 276 276 276 277 277 276 276 276 276 276 276 275 275 275 275 275 275 275 274
306 307 306 306 305 303 300 294 291 289 288 287 286 285 283 282 281 280 279 279 278 278 277 276 275 275 274 274 275 275 275 275 275 275 274 273 274 275 274 274 274 273 273 273
295 295 293 291 290 290 290 288 287 286 285 284 283 283 282 281 280 280 281 281 280 277 276 275 274 274 273 272 273 274 274 274 273 273 274 272 273 273 273 272 272 272 272 272
289 289 289 289 288 288 287 287 286 286 284 284 283 282 281 281 280 279 279 278 276 276 275 275 275 274 273 273 273 273 273 273 273 273 273 273 272 272 272 271 271 271 270 270
289 289 288 287 287 287 286 285 285 284 283 281 281 280 280 280 279 279 280 278 276 275 276 275 274 272 272 271 273 273 273 272 272 272 272 272 271 271 270 270 269 269 268 268
288 287 286 286 286 285 284 284 283 282 282 282 282 281 281 280 280 280 279 277 276 276 276 274 271 270 270 272 272 272 272 271 271 271 270 270 270 269 269 268 268 267 267 267
287 286 286 285 284 284 283 282 281 280 280 280 280 280 280 280 278 277 277 275 274 275 274 272 270 269 269 271 271 271 270 270 270 270 270 269 268 268 268 267 266 266 265 265
285 285 284 283 283 283 282 281 281 280 280 279 279 278 278 278 279 277 276 274 272 274 273 270 269 268 270 270 270 269 269 269 269 268 267 267 267 267 267 266 265 265 264 263
283 283 283 283 283 282 282 281 281 281 281 280 279 278 277 276 276 275 274 273 272 271 272 271 270 269 269 269 269 268 268 268 268 267 266 266 266 266 265 265 264 263 263 263
281 281 281 280 279 279 279 279 279 278 278 278 277 276 276 275 274 274 273 273 272 271 271 270 269 269 268 267 267 267 267 267 266 265 264 264 264 264 264 263 263 262 261 260

GFSNGP_925_thetae_066.txt.gz
Theta_e
320 321 321 322 321 320 320 324 328 325 322 322 322 321 322 324 323 322 321 322 322 326 329 330 331 327 324 322 321 319 315 314 312 313 314 312 311 309 308 306 305 304 304 303
324 321 321 321 321 320 320 320 321 322 323 322 320 320 320 322 322 322 323 324 323 324 329 333 327 321 318 315 313 314 313 310 310 309 308 306 304 304 303 303 302 302 302 301
324 321 321 321 322 320 320 321 320 321 321 320 320 320 321 321 321 322 325 325 325 327 332 327 322 319 315 312 313 312 309 307 306 305 304 303 302 302 302 301 301 301 300 300
327 323 326 321 321 319 320 320 319 319 319 320 320 320 321 321 323 324 325 325 326 328 327 324 320 318 315 313 311 310 309 308 307 306 305 303 303 303 301 300 300 299 299 299
327 326 323 320 321 321 321 321 320 320 320 319 319 323 323 322 322 324 323 324 324 324 323 322 320 318 316 314 313 312 310 309 307 305 304 304 302 300 299 299 299 299 299 299
330 326 328 324 321 320 321 323 321 320 322 321 322 326 324 321 323 322 321 321 321 320 319 318 316 315 313 312 310 309 307 306 305 305 303 302 301 301 300 300 300 300 298 295
326 327 326 322 321 320 324 325 323 322 322 322 323 325 323 320 321 320 318 318 317 317 316 314 313 312 311 310 309 308 306 305 304 303 302 302 301 301 300 297 296 295 294 295
327 326 328 322 321 321 323 325 325 324 323 322 325 322 320 320 319 317 316 315 315 315 314 312 311 311 310 309 307 306 304 303 302 301 300 298 296 295 294 295 295 294 291 290
325 326 326 322 323 322 324 327 325 326 324 323 324 321 319 318 316 315 314 314 314 313 311 311 311 310 308 306 305 303 301 299 297 296 296 296 295 294 292 291 290 289 289 289
325 323 323 324 321 322 322 323 323 323 323 323 323 320 318 316 315 314 313 313 312 311 310 310 309 308 305 303 301 300 298 296 295 293 292 291 289 289 289 288 287 287 287 287
324 323 321 320 320 322 322 323 322 321 320 321 322 319 317 315 313 313 312 311 310 310 309 308 306 303 302 300 299 298 295 293 290 289 289 288 287 286 286 284 283 285 284 283
324 320 324 323 323 321 321 322 323 321 320 319 321 319 316 314 313 312 311 310 309 308 305 303 301 299 298 298 296 293 291 290 289 288 287 287 286 283 283 282 282 281 279 279
316 319 320 321 320 318 318 320 321 321 319 319 320 317 315 313 312 311 309 308 306 303 301 298 296 295 294 293 291 289 287 287 287 286 286 286 285 285 283 281 281 281 280 279
317 317 319 319 321 318 316 317 318 318 318 318 317 315 313 311 309 308 307 305 302 298 295 292 290 288 287 286 286 286 285 286 286 285 284 284 284 283 283 283 283 282 280 279
315 316 318 320 319 317 315 315 315 316 316 315 314 312 310 309 307 305 301 297 294 292 290 288 287 286 285 285 284 284 284 284 284 283 282 281 281 281 281 281 281 281 280 280
318 318 317 318 317 315 314 313 313 313 312 312 311 309 307 304 298 294 293 291 291 287 284 283 283 283 283 282 281 280 280 281 281 281 280 280 280 280 280 280 279 279 279 278
317 318 316 316 315 314 312 311 311 310 309 308 305 298 292 286 285 284 283 282 282 281 281 280 280 280 280 281 281 281 279 277 278 279 279 278 278 278 278 277 278 277 277 276
311 311 311 311 312 311 303 297 296 295 293 290 287 286 284 283 282 281 280 280 280 280 279 277 277 277 278 278 278 277 277 277 277 277 276 277 276 275 276 276 276 276 275 275
301 301 300 299 298 296 294 291 289 287 286 285 283 282 282 281 281 280 280 279 278 277 276 276 275 275 275 275 275 275 276 276 276 275 275 274 275 275 275 275 274 274 273 273
291 291 291 290 289 288 287 286 285 284 284 283 282 282 281 280 281 281 280 279 278 277 276 275 275 274 273 273 274 274 274 274 274 274 275 273 274 274 273 273 273 273 272 272
289 289 288 288 288 287 286 285 285 284 283 283 282 282 281 280 279 279 278 277 276 275 275 275 275 274 273 273 274 274 274 274 274 274 274 274 273 273 273 272 272 271 271 270
289 288 288 287 286 286 285 284 283 282 282 281 281 280 280 280 280 279 278 276 275 276 276 275 273 273 272 273 274 274 274 273 273 273 273 272 272 271 271 270 270 269 269 268
287 287 286 285 285 284 283 283 283 282 282 282 281 281 281 280 280 279 278 277 277 277 275 273 271 271 271 273 273 273 273 272 272 272 271 271 270 270 269 269 269 268 267 267
286 286 285 284 283 283 283 281 281 280 280 280 280 281 280 279 278 277 276 275 275 275 273 272 271 270 270 272 272 271 271 270 270 270 270 269 269 269 268 268 267 267 266 266
285 284 284 283 283 283 282 282 281 281 280 280 279 278 277 278 277 276 275 273 273 274 272 271 270 270 270 271 270 270 269 269 269 268 268 268 267 267 267 267 266 266 265 264
282 282 282 282 282 282 281 281 281 281 280 279 278 277 276 276 275 274 273 273 272 272 271 271 270 269 269 268 268 267 268 268 267 267 266 266 265 265 265 265 264 264 263 262
280 280 279 279 278 278 278 277 277 276 277 277 277 276 275 275 274 274 273 272 271 271 270 269 269 268 268 267 267 267 266 266 266 265 264 264 263 263 263 263 262 262 261 260

GFSNGP_925_thetae_069.txt.gz
Theta_e
319 322 323 322 321 319 321 324 325 324 324 321 319 318 318 318 318 317 318 317 318 321 323 325 322 318 317 318 321 321 317 317 316 317 316 316 315 315 314 314 312 311 308 306
320 321 321 323 321 319 319 318 319 323 324 320 317 317 318 320 319 319 318 320 320 326 328 324 320 317 314 313 316 318 316 313 313 312 311 310 310 309 308 307 306 305 305 304
322 320 321 321 320 321 321 318 318 318 317 318 317 316 317 317 318 319 321 321 324 329 326 321 318 316 314 312 311 311 311 310 310 309 307 306 306 305 304 304 304 303 302 302
322 319 323 319 319 320 320 319 317 317 317 316 316 316 316 315 316 321 321 321 327 324 321 318 316 315 313 313 311 309 307 307 306 305 305 304 303 302 302 302 302 301 301 300
323 322 321 321 319 320 320 319 317 317 316 316 315 318 319 319 319 320 320 321 321 322 319 317 315 314 313 312 310 309 308 307 305 304 303 303 302 301 300 301 300 300 299 299
321 322 322 321 320 319 319 319 318 318 318 318 318 318 317 320 319 319 319 321 320 320 318 317 315 314 312 311 310 309 308 307 305 304 303 302 301 300 300 300 300 299 299 298
319 324 322 321 319 319 321 318 319 319 318 319 317 317 317 318 317 317 318 319 319 318 317 316 315 314 311 310 308 307 306 305 304 303 302 301 300 300 300 300 299 295 293 293
319 323 324 320 319 320 318 317 319 320 321 321 319 317 318 318 317 316 315 316 316 314 313 313 313 311 309 307 307 306 305 304 303 302 302 301 301 300 298 296 295 294 293 289
321 320 319 319 320 319 321 321 321 321 320 320 318 317 318 317 314 313 312 313 314 312 311 312 311 310 307 306 305 304 304 303 302 301 300 297 295 295 294 294 293 290 290 288
320 320 321 321 321 320 319 320 320 319 318 320 319 317 315 314 312 311 310 310 312 310 309 309 309 307 306 305 304 303 301 298 296 296 295 293 291 291 290 289 288 288 288 286
321 320 319 318 318 317 318 319 319 318 318 318 317 315 314 312 310 309 309 310 309 309 308 307 306 305 304 302 301 298 296 294 292 290 289 288 288 288 288 286 286 286 285 285
318 319 318 318 317 316 316 317 318 319 318 317 316 314 312 310 309 308 308 308 308 307 302 300 301 300 300 300 297 294 290 289 288 288 287 286 286 284 282 283 282 281 281 280
311 314 317 319 318 316 316 317 316 315 318 317 316 312 310 309 308 308 307 305 301 298 295 290 289 289 292 293 292 289 288 287 287 286 286 285 284 283 281 281 281 282 281 280
313 315 315 317 317 314 314 314 313 313 313 313 313 310 309 307 306 305 301 296 293 289 287 286 286 286 287 288 287 286 286 285 285 284 284 284 283 283 283 282 282 281 281 280
315 313 313 317 314 313 312 311 311 311 310 309 308 306 304 300 297 295 292 290 288 287 285 284 284 284 284 285 285 284 284 284 284 283 282 282 282 281 281 281 281 280 280 279
314 313 314 314 313 311 310 310 309 308 306 300 294 291 289 287 286 285 285 285 284 282 281 281 281 282 282 283 283 283 282 282 281 280 280 280 279 279 279 279 279 278 278 278
311 312 311 311 308 303 300 300 299 296 291 289 287 286 285 283 282 281 281 281 280 280 280 281 281 283 283 282 281 280 279 278 279 279 278 278 278 277 277 277 277 277 276 275
300 300 300 303 300 297 293 291 290 288 286 284 283 283 282 282 282 281 280 280 280 278 278 278 279 280 279 279 278 277 277 277 277 277 276 276 276 275 275 275 275 275 274 274
295 294 293 292 291 290 288 287 286 285 284 283 283 282 282 281 281 279 278 278 277 276 276 276 276 277 276 276 276 276 276 276 275 275 275 275 274 275 275 274 274 273 273 273
289 289 288 287 287 286 285 284 284 283 282 282 281 281 280 280 279 278 277 277 277 276 276 275 275 274 274 274 274 274 274 274 274 274 274 274 274 273 273 273 272 272 271 271
287 287 286 286 285 284 284 283 283 282 282 281 280 280 279 278 278 277 277 276 276 276 275 275 274 274 273 274 274 274 274 274 273 273 273 273 273 272 272 271 270 270 270 269
286 285 284 284 283 283 282 282 281 281 281 280 280 279 279 278 277 277 276 276 275 275 274 272 272 271 272 274 273 273 273 272 272 272 272 271 271 271 270 269 269 269 268 267
284 284 283 283 282 282 281 281 281 281 280 280 279 279 279 279 278 277 277 276 275 274 273 271 271 271 272 272 272 271 271 270 270 270 270 269 268 268 268 268 268 267 267 266
284 283 283 282 282 281 281 281 280 279 278 278 279 278 277 277 276 275 274 274 273 272 271 270 270 270 271 270 270 269 269 269 269 268 268 267 267 266 266 266 266 266 265 265
283 283 283 283 282 282 281 280 279 279 278 277 276 276 276 275 274 273 273 272 272 271 270 270 269 269 269 268 267 267 267 267 267 266 266 265 265 264 264 264 264 263 263 262
280 279 278 278 279 278 278 278 279 278 277 276 275 275 274 274 273 272 272 271 271 270 269 269 268 268 267 267 267 266 266 265 265 264 264 264 263 263 262 262 261 261 261 260
277 277 277 276 275 275 275 275 274 275 275 274 273 272 272 271 271 270 270 269 268 268 268 267 267 266 265 265 265 265 264 264 264 263 263 262 262 261 261 260 260 259 259 259

GFSNGP_925_thetae_072.txt.gz
Theta_e
318 319 320 319 320 321 320 321 323 323 323 321 319 319 316 315 314 314 314 318 319 318 324 321 322 323 327 328 329 330 323 320 321 322 324 322 321 322 322 319 318 317 317 313
320 319 319 320 321 321 321 318 322 321 322 319 319 315 316 316 316 314 315 314 317 322 324 320 318 317 318 319 320 321 317 315 318 319 316 317 318 318 318 316 315 312 309 308
319 319 320 322 321 322 321 320 318 319 320 319 319 318 314 316 315 315 315 321 324 325 324 319 317 316 316 316 316 316 316 314 314 316 315 313 313 312 310 309 307 306 305 305
316 318 325 320 320 321 322 320 319 316 315 315 315 314 312 313 315 317 317 322 325 324 319 316 314 316 314 314 314 313 311 310 310 309 308 307 307 307 305 305 304 303 303 302
319 321 321 320 319 320 320 319 318 315 315 314 314 317 319 315 314 318 317 322 322 321 316 314 312 312 313 312 311 310 308 307 306 306 304 304 303 303 303 303 303 302 301 300
315 321 320 318 318 318 318 320 317 316 316 316 315 316 315 318 318 318 319 321 319 318 316 314 312 312 311 309 309 309 308 306 305 304 303 302 302 303 302 302 301 299 299 299
314 318 318 318 318 318 321 319 317 318 316 316 315 315 314 317 319 318 320 319 319 317 316 314 313 312 310 309 309 308 307 305 304 303 304 304 302 301 300 299 299 298 298 295
315 317 320 318 318 320 317 316 317 317 318 318 315 317 316 317 317 317 317 316 317 315 314 314 313 311 309 307 306 306 304 304 304 303 302 301 300 299 299 299 297 294 291 288
315 316 316 319 320 319 318 318 318 318 318 318 316 316 316 316 316 316 315 313 313 311 310 311 311 310 306 305 305 305 304 303 302 302 301 300 299 299 297 294 292 290 288 285
317 318 320 319 319 319 318 317 317 317 317 319 317 315 315 313 312 311 310 310 310 309 308 307 308 307 306 305 305 304 303 302 301 300 298 297 297 295 294 292 290 288 286 284
318 319 318 318 319 318 319 317 315 316 316 316 317 316 315 313 312 311 308 309 309 308 305 304 305 304 304 304 304 301 297 294 293 292 292 290 289 288 288 287 288 288 286 285
316 317 317 317 316 318 317 314 316 317 318 316 315 314 312 309 308 308 306 307 303 301 298 295 298 298 298 299 301 295 290 289 288 288 287 285 284 282 282 282 283 284 284 282
311 312 314 315 313 313 312 314 315 314 314 316 316 311 309 308 306 306 304 300 293 290 289 290 291 291 292 294 293 289 286 286 285 285 284 283 283 283 282 282 282 282 282 281
313 312 315 316 316 314 313 313 312 310 308 308 308 307 306 304 301 297 292 289 288 287 286 286 285 285 286 288 287 285 284 284 284 284 284 284 284 283 282 282 282 282 281 280
307 311 311 314 311 311 311 310 308 305 300 298 299 300 297 294 292 289 287 286 285 284 284 284 283 283 285 286 285 285 286 285 285 283 282 282 282 282 281 281 280 280 280 280
306 309 310 311 309 308 308 306 301 295 293 291 288 287 286 285 284 283 283 283 283 282 282 282 282 282 285 286 285 284 283 281 281 281 281 280 280 279 279 279 278 278 278 277
305 305 304 305 302 299 298 295 293 291 289 287 285 284 284 283 282 281 280 280 280 280 280 280 280 281 282 282 281 280 280 279 279 279 278 278 277 277 277 277 276 276 275 275
297 295 294 296 295 292 290 288 288 287 286 284 284 283 283 282 281 280 279 278 278 277 278 279 279 279 279 279 279 278 278 277 277 277 276 276 275 275 275 275 275 274 273 273
291 291 290 289 288 287 286 286 285 284 283 283 282 281 280 279 279 278 277 277 276 276 275 276 277 276 276 276 276 276 276 275 275 275 275 274 274 274 273 273 273 273 272 271
287 286 285 285 285 284 284 283 282 282 281 280 280 279 278 278 277 277 276 276 276 275 275 275 275 274 274 274 274 274 274 274 274 274 273 273 273 273 272 271 271 270 270 269
284 283 283 283 282 282 282 281 281 280 280 279 279 278 278 277 277 277 276 276 274 274 274 273 272 274 274 274 274 273 273 272 272 272 272 271 271 271 270 269 269 269 268 268
284 283 283 282 282 281 281 281 280 280 279 279 278 277 277 277 276 276 276 274 272 272 271 271 272 272 272 272 272 271 270 270 270 269 269 268 268 268 267 267 267 267 267 266
282 282 282 281 281 280 279 279 279 279 278 278 277 277 277 276 276 275 274 272 271 271 270 271 271 271 270 270 269 269 269 268 268 268 267 267 266 265 265 265 265 265 265 264
282 282 282 281 280 280 279 278 278 277 277 277 276 275 275 274 273 272 272 271 270 270 269 269 269 268 268 267 267 267 267 266 266 266 265 265 265 264 264 263 263 263 262 262
280 280 280 280 280 279 278 278 277 276 276 275 274 274 273 273 272 272 271 270 270 269 269 268 268 267 267 266 266 265 265 265 264 264 264 263 263 262 262 262 261 260 260 260
277 277 276 277 277 277 278 277 276 275 274 273 272 272 272 271 271 270 269 269 268 268 267 266 266 265 265 265 264 264 264 264 263 262 262 261 261 261 260 260 260 259 258 258
276 275 275 274 274 274 273 273 273 272 270 269 269 269 270 269 269 268 267 267 266 266 265 264 264 264 263 263 263 263 263 262 262 261 261 260 260 260 259 259 258 258 257 257

GFSNGP_925_thetae_075.txt.gz
Theta_e
316 316 320 320 319 320 319 319 321 321 323 322 320 319 317 314 313 312 313 315 317 318 319 320 321 323 324 324 323 324 324 324 324 325 324 325 325 325 324 324 321 321 318 316
317 316 318 320 320 319 318 319 319 320 321 318 319 316 316 316 314 313 313 313 316 318 322 321 321 321 322 322 325 325 325 322 321 323 322 324 325 323 322 320 318 316 314 315
319 319 321 320 319 318 319 319 319 320 319 318 318 317 316 315 313 314 312 313 316 320 323 320 320 319 319 318 320 322 319 315 316 317 318 318 318 317 315 313 313 312 310 309
318 319 323 319 318 318 319 320 320 318 316 315 316 317 314 313 314 313 312 312 313 319 320 318 318 316 314 316 319 316 314 314 314 313 312 310 311 310 309 308 308 307 306 306
320 319 318 319 319 320 321 321 319 319 317 314 312 314 314 315 310 312 313 314 317 320 319 317 316 314 314 313 313 313 311 310 310 311 309 308 306 306 306 306 305 304 303 302
318 319 318 316 316 317 318 321 318 316 317 315 314 315 313 313 313 312 313 318 316 315 314 314 313 315 314 312 312 310 310 309 309 309 308 306 306 304 303 303 302 301 300 300
319 321 317 315 317 317 324 319 317 317 317 317 314 314 312 314 316 316 318 318 316 314 313 312 312 313 312 311 310 310 309 308 307 306 306 305 304 303 302 300 299 299 297 296
315 318 321 317 319 320 317 316 318 317 316 317 314 312 313 313 316 317 317 316 315 313 311 311 311 311 310 310 309 308 306 305 304 304 303 302 302 301 300 299 297 294 292 289
317 316 315 317 319 318 317 317 317 317 316 317 316 315 314 315 317 316 316 314 313 312 310 310 310 311 306 306 306 305 305 303 302 301 301 301 300 298 297 297 294 289 287 285
317 317 318 318 318 318 318 317 316 315 316 314 316 315 316 313 313 312 311 311 310 310 308 306 308 307 306 305 305 304 301 300 300 300 299 298 298 297 295 293 290 287 285 283
317 316 317 316 315 315 316 317 315 315 316 316 315 316 316 313 311 310 308 308 309 307 304 303 304 304 303 303 303 300 298 297 296 296 295 292 291 290 290 289 291 289 287 285
311 312 315 313 313 315 317 317 314 316 316 315 315 315 312 310 309 308 307 304 300 298 298 297 299 299 300 301 302 299 292 290 288 287 285 285 284 282 283 285 286 286 285 285
311 310 311 313 312 314 315 312 314 312 312 314 314 310 308 306 303 297 295 294 292 291 290 290 290 290 292 293 293 290 287 285 284 284 284 283 283 282 282 281 282 282 282 282
307 306 312 314 315 313 313 310 306 303 301 304 306 304 302 295 292 290 289 288 287 286 286 286 285 285 286 287 287 285 284 284 284 284 284 284 284 283 283 283 282 282 281 280
302 301 308 309 309 309 309 307 301 298 295 294 293 293 291 289 287 286 285 284 284 284 284 284 284 284 285 285 286 286 287 286 285 284 283 283 282 282 282 281 281 281 280 279
300 304 304 304 302 301 302 299 295 293 290 288 286 285 284 283 283 283 283 283 283 283 282 282 282 283 286 287 285 283 282 282 282 281 280 280 279 279 279 278 278 278 278 277
299 301 297 300 295 293 293 292 290 289 287 286 285 283 283 282 281 280 280 279 279 279 279 279 279 282 282 282 281 280 279 279 278 278 277 277 276 276 276 276 276 275 275 274
295 294 292 292 292 290 288 286 286 285 285 283 282 281 281 280 280 279 278 277 277 277 277 278 278 279 279 279 278 278 277 276 276 275 275 275 275 275 274 274 274 273 273 272
289 289 288 288 287 287 286 284 283 282 281 280 280 279 278 278 277 277 276 276 275 275 275 275 276 276 276 276 276 275 275 275 274 274 274 274 273 273 272 272 271 271 270 270
285 284 284 284 283 283 282 281 281 280 280 279 278 278 277 276 276 275 275 274 274 273 274 274 274 274 274 274 274 273 273 273 272 272 272 271 271 270 270 269 269 269 268 268
283 282 282 282 281 281 280 280 279 279 278 278 277 277 277 276 275 275 274 273 272 272 273 273 273 273 273 272 272 271 271 270 270 269 269 268 268 268 267 267 267 266 266 266
282 282 281 281 280 280 280 279 279 278 277 277 277 276 275 274 273 272 272 271 271 271 271 271 271 271 270 270 270 269 269 268 268 267 267 266 266 265 265 265 265 265 265 264
281 281 280 280 279 279 278 278 277 276 276 275 275 275 275 275 273 272 271 270 270 270 269 269 269 268 268 268 268 267 267 266 266 265 265 264 264 264 263 263 263 262 262 262
281 280 280 279 279 278 278 277 276 275 275 274 274 274 273 271 270 270 269 269 269 268 268 267 267 267 266 266 266 265 265 264 264 264 263 263 262 262 262 261 261 260 260 260
278 279 279 279 278 277 277 276 275 274 274 273 272 272 271 271 270 269 269 268 268 267 267 266 266 265 265 265 264 264 264 263 263 262 262 261 261 260 260 260 259 259 259 258
276 276 275 275 276 276 275 274 273 272 272 271 270 269 269 269 269 268 268 267 266 265 265 264 264 264 264 263 263 263 262 262 261 261 260 260 260 259 259 259 258 258 258 257
274 274 274 273 272 272 271 271 270 269 268 268 268 267 268 267 267 266 266 265 265 264 264 263 263 262 262 262 262 262 261 261 261 260 260 259 259 258 258 258 258 257 257 257

GFSNGP_925_thetae_078.txt.gz
Theta_e
315 313 313 318 318 318 318 317 319 319 321 321 318 317 317 316 314 312 312 314 314 316 316 318 319 321 320 320 319 319 320 320 320 320 321 321 322 321 321 321 321 322 322 321
316 314 314 315 316 316 317 318 318 317 317 317 317 316 316 316 315 312 311 312 313 314 315 314 317 319 321 321 320 320 320 321 321 321 321 322 323 323 323 322 322 322 321 320
318 317 317 319 317 316 317 317 318 320 317 316 317 316 315 316 314 314 311 311 313 315 317 318 319 319 319 319 321 321 320 321 320 318 319 322 322 322 321 321 320 318 316 314
316 317 320 317 315 316 317 316 316 317 317 317 317 315 313 313 314 312 312 311 310 312 315 318 320 319 317 317 318 319 318 317 317 318 319 319 318 318 316 313 312 311 310 308
320 320 317 316 318 319 319 318 316 317 317 318 316 310 310 309 310 313 312 312 310 312 316 318 317 317 317 317 316 316 313 313 315 316 316 314 311 310 309 307 306 304 304 304
317 322 322 315 314 316 317 319 317 317 318 315 312 313 312 311 312 311 308 312 313 316 316 316 314 315 314 314 314 312 312 312 313 312 311 308 307 305 303 303 301 301 300 300
319 319 319 316 315 316 320 319 317 318 318 316 314 313 313 310 311 314 315 314 314 315 315 314 314 314 313 312 311 311 311 309 308 308 307 306 304 302 301 300 299 298 297 296
317 319 320 315 319 321 316 316 318 317 317 318 317 315 314 312 313 316 316 314 313 313 313 313 313 314 312 310 309 309 308 307 306 305 303 302 301 299 299 298 295 293 292 290
314 315 313 314 318 317 317 317 317 316 316 315 316 315 313 314 315 315 314 314 312 311 310 310 311 312 309 307 307 306 304 302 302 301 300 300 299 297 295 295 292 289 288 285
313 313 315 315 315 318 317 317 316 315 315 315 316 314 315 312 313 312 311 311 310 310 309 307 308 309 307 306 306 304 301 300 300 299 298 298 297 297 296 294 292 289 286 284
312 312 312 313 315 316 316 316 315 313 314 315 316 315 315 312 310 309 308 306 305 305 304 303 303 303 304 305 305 301 299 298 297 296 295 292 290 290 291 290 292 288 285 283
309 310 310 311 311 312 313 314 316 314 315 313 312 311 309 308 307 305 302 300 299 298 296 294 295 296 298 300 300 296 291 289 287 287 285 284 283 283 285 286 288 288 287 286
308 307 306 307 307 309 312 312 309 306 306 307 307 306 304 297 295 293 291 291 290 289 288 288 288 289 291 293 293 290 286 285 284 284 284 283 284 283 282 281 282 282 282 281
304 302 307 305 306 307 308 305 300 297 295 296 295 294 292 291 289 289 288 287 287 286 286 286 285 285 286 288 287 285 284 284 284 284 284 284 284 283 283 282 281 280 281 280
299 300 303 301 299 300 300 299 295 292 291 289 288 288 287 286 285 285 285 285 285 285 285 285 284 284 285 285 285 285 285 284 284 283 283 283 282 282 281 281 281 280 279 279
297 300 298 297 295 294 295 295 293 291 288 286 285 284 283 283 282 282 282 283 283 282 281 281 281 282 285 286 284 282 281 282 281 280 280 279 279 278 278 278 277 277 276 275
297 298 295 297 292 289 289 288 288 287 286 285 284 283 282 281 280 279 279 278 278 278 278 278 278 280 281 281 280 279 279 278 278 277 277 276 276 276 276 275 275 274 273 273
292 292 291 291 290 288 286 285 284 284 283 281 280 279 279 279 278 277 277 277 276 276 276 277 278 278 278 278 278 277 276 275 275 275 275 274 274 273 273 273 272 272 271 270
286 287 287 287 287 286 284 283 282 280 279 278 278 277 277 277 276 276 275 275 275 275 275 275 276 276 275 275 276 275 274 274 273 273 272 272 271 271 270 270 269 269 269 268
283 283 283 283 283 282 282 280 280 279 278 277 277 276 275 274 273 273 273 273 274 274 274 274 274 274 273 273 273 273 272 271 271 270 270 269 268 268 268 268 267 267 266 266
282 281 281 280 280 279 279 279 278 278 277 277 276 275 274 274 273 273 273 272 272 272 272 272 272 271 271 271 271 270 270 269 268 268 267 267 266 266 265 265 265 265 265 264
280 280 279 279 279 278 278 278 277 276 275 274 274 273 272 272 271 271 271 271 270 271 270 270 270 270 269 269 268 268 267 267 266 265 265 265 264 264 263 263 263 262 262 262
280 279 278 278 277 277 276 276 275 275 274 274 274 273 273 272 271 271 270 269 268 268 268 267 267 267 267 267 266 266 265 265 264 264 263 263 262 262 262 261 261 260 260 260
279 278 278 277 277 276 276 275 275 274 273 273 272 271 271 270 269 268 268 268 267 267 266 266 266 266 265 265 265 264 264 263 263 262 262 262 261 261 260 260 259 259 259 259
278 278 277 277 276 276 275 274 273 273 272 271 271 270 270 269 268 267 267 266 266 266 265 265 265 264 264 264 263 263 262 262 261 261 261 260 260 259 259 259 259 258 258 258
275 275 274 274 274 274 273 273 272 271 270 269 267 268 268 268 267 266 266 265 265 264 263 263 263 263 263 262 262 262 261 261 261 260 260 259 259 259 259 258 258 258 258 258
274 273 273 272 271 270 270 270 269 268 268 267 266 266 267 266 265 265 264 264 263 263 262 262 262 262 262 262 261 261 261 260 260 260 259 259 258 258 258 258 258 258 257 257

GFSNGP_925_thetae_081.txt.gz
Theta_e
317 316 318 318 315 316 320 320 322 321 321 321 321 321 320 318 318 317 316 316 320 323 324 324 323 321 319 318 317 317 317 316 316 316 316 316 317 318 319 320 320 320 320 320
317 317 318 318 317 314 317 317 318 318 320 318 319 319 319 319 318 318 317 315 317 318 319 322 322 322 320 319 317 316 316 317 317 317 317 318 319 319 319 320 320 320 320 319
317 317 317 319 317 316 316 317 318 320 319 319 319 319 319 318 317 317 318 316 315 317 318 319 319 320 321 320 319 318 317 318 318 318 318 319 319 319 319 320 321 321 321 320
317 318 324 318 316 316 317 317 318 318 318 319 319 318 317 317 317 316 316 317 315 314 316 318 318 318 319 319 320 320 320 320 320 319 319 318 318 319 320 320 317 315 314 312
319 321 317 319 319 320 319 319 317 317 317 317 317 315 318 314 312 313 314 315 316 314 314 318 319 318 318 318 319 319 318 317 317 317 317 317 316 315 313 310 308 307 305 304
318 320 319 318 317 317 318 322 318 318 318 318 314 320 318 314 315 313 313 312 311 312 316 318 317 318 317 317 316 314 314 315 317 317 316 313 311 308 305 304 302 301 300 299
316 318 319 317 316 317 321 322 318 319 319 317 319 319 318 315 315 314 317 316 315 316 316 317 317 317 316 315 313 313 313 313 312 311 310 308 305 303 302 300 298 296 295 294
316 319 320 316 319 321 320 318 319 318 318 319 318 316 317 315 316 317 316 314 315 315 315 314 315 315 314 311 309 309 307 306 305 305 303 302 302 300 298 297 294 291 290 288
317 318 315 314 318 318 318 319 320 319 318 320 319 318 318 317 315 314 313 312 311 312 312 313 312 311 308 306 306 305 304 302 302 302 301 300 300 296 294 293 290 288 286 284
314 312 313 313 313 314 315 317 318 317 316 316 317 315 315 315 313 312 312 311 308 308 307 305 307 306 305 304 305 304 300 298 298 298 296 296 295 294 292 291 289 287 285 283
312 311 313 312 312 312 312 311 312 315 315 314 314 315 314 313 310 307 307 307 306 305 303 302 302 302 302 301 300 297 295 293 291 291 290 289 289 289 290 290 291 288 284 283
312 310 311 311 310 308 309 311 312 314 314 310 312 311 307 304 302 300 299 298 297 295 293 293 294 294 296 298 299 294 290 289 287 286 286 285 284 284 286 287 287 287 286 286
306 304 304 305 306 303 306 302 299 300 302 302 300 300 298 295 293 292 292 292 290 290 290 289 289 289 290 291 291 289 286 285 285 285 285 284 284 283 283 282 281 281 281 280
300 300 306 305 303 300 301 298 295 293 292 293 292 291 291 290 289 288 288 288 287 287 287 287 287 287 288 288 287 286 285 285 285 284 284 284 284 284 284 284 283 281 280 280
297 297 300 299 297 295 297 297 294 292 290 289 288 288 288 288 287 286 285 284 284 284 284 284 284 284 284 285 284 284 283 283 283 282 282 282 282 282 282 282 281 280 278 277
295 297 297 296 293 291 292 292 291 289 288 287 286 285 284 283 282 281 281 281 282 281 280 280 280 281 282 282 281 281 280 281 281 280 280 280 280 280 279 279 278 277 276 275
293 296 294 294 291 289 288 288 287 286 286 285 283 282 282 280 280 279 278 278 278 278 278 278 278 280 281 281 280 279 278 278 278 278 278 277 277 277 276 276 275 274 272 271
288 290 290 290 289 288 286 286 285 283 282 281 279 279 279 279 278 277 277 277 276 276 276 276 277 278 278 278 278 277 276 276 276 275 275 274 274 274 273 273 272 272 270 269
285 286 286 286 286 285 284 283 281 280 279 278 277 277 276 276 276 275 276 275 275 275 274 274 275 275 275 275 275 274 274 274 273 272 271 271 271 271 270 270 269 268 268 268
283 282 281 281 281 281 280 279 278 277 276 276 275 275 274 274 274 273 273 272 273 273 272 273 273 273 273 273 273 272 271 271 270 269 269 268 268 267 267 266 266 266 265 265
280 280 280 279 278 278 278 277 276 275 275 274 274 274 273 273 273 273 273 272 271 271 271 271 271 270 270 270 270 269 268 267 267 266 266 265 265 264 264 264 263 263 263 262
279 279 278 278 277 277 276 276 275 274 274 273 273 273 272 271 270 270 270 270 269 269 269 268 269 269 269 268 267 266 266 265 265 264 264 263 263 263 262 262 261 261 260 260
278 278 277 276 276 275 275 274 273 273 272 272 272 271 271 271 271 270 269 268 267 267 266 266 267 267 267 266 266 265 264 264 263 263 262 262 261 261 260 260 260 259 259 259
278 277 277 276 276 275 275 274 273 272 272 271 271 270 270 269 268 267 266 266 266 266 265 265 265 265 265 264 264 263 263 262 262 262 261 261 261 260 260 260 259 259 259 259
277 276 276 276 275 274 273 273 272 271 270 269 269 268 268 268 267 266 265 265 265 265 264 264 264 264 263 263 262 262 262 261 261 261 260 260 260 259 259 259 259 259 259 259
274 274 273 273 273 273 273 272 271 270 269 268 267 266 266 265 265 265 264 264 264 263 263 263 263 263 262 262 262 261 261 261 260 260 260 259 259 259 259 259 259 259 259 259
273 273 272 271 270 270 270 270 270 269 268 267 266 265 265 265 264 264 263 263 263 262 262 262 262 262 261 261 261 261 260 260 260 259 259 259 259 259 259 259 259 259 259 258

GFSNGP_925_thetae_084.txt.gz
Theta_e
311 313 314 316 318 319 319 318 322 320 319 319 319 321 321 321 321 321 321 321 323 328 329 329 328 327 326 326 324 323 322 321 321 321 321 321 321 321 320 319 320 321 321 321
316 314 315 318 317 318 319 318 318 318 319 320 320 320 321 321 321 321 321 321 321 322 327 329 328 327 326 326 325 324 323 322 321 321 321 320 320 320 320 320 320 321 322 322
315 315 316 318 319 320 319 318 318 320 319 319 319 319 320 320 320 321 321 320 320 320 322 327 327 326 326 325 325 324 323 323 322 322 321 321 321 321 321 322 321 322 322 323
314 316 319 317 318 321 320 318 317 317 318 318 319 319 320 320 320 319 319 317 317 318 320 321 324 326 326 325 324 324 323 323 322 322 322 322 321 321 322 321 319 319 318 317
313 317 316 317 314 320 323 320 318 318 318 319 319 319 320 318 320 321 320 318 318 317 317 319 321 323 325 325 325 324 323 323 322 322 322 322 321 318 316 317 314 312 309 308
313 318 316 315 314 317 317 325 321 321 322 321 321 323 322 321 321 322 321 321 319 318 315 317 321 321 323 324 324 324 324 324 322 321 318 317 316 315 311 309 306 304 301 300
313 317 316 317 317 317 326 326 321 321 321 321 323 323 321 320 321 321 321 319 318 318 318 319 321 322 323 323 323 322 319 318 316 315 314 314 310 307 305 302 299 296 294 292
312 318 317 315 316 319 319 321 320 321 321 322 321 320 320 320 321 320 318 316 316 318 317 318 320 321 320 317 313 310 308 308 308 308 306 305 304 300 298 295 292 289 289 287
316 314 313 312 314 315 315 317 317 319 321 321 320 319 319 321 320 317 315 312 313 313 312 314 316 315 310 306 305 305 304 301 301 301 300 299 298 294 292 292 289 287 286 284
312 313 312 312 313 312 313 314 315 316 316 319 320 320 319 319 317 315 311 310 308 307 305 305 305 305 304 302 302 300 297 296 295 294 293 293 293 292 291 290 288 287 285 283
310 310 313 310 312 311 310 311 311 314 317 318 319 319 318 316 311 309 308 305 303 302 301 300 300 301 301 300 300 295 293 291 290 289 288 287 288 289 289 289 288 286 283 283
313 310 311 312 310 308 308 307 305 308 315 313 316 314 310 306 303 301 299 297 296 295 294 294 294 295 297 297 295 293 291 289 289 288 287 286 285 284 285 285 286 285 284 284
308 304 306 308 308 304 305 304 301 302 303 304 303 304 302 298 294 293 293 292 291 291 291 290 290 290 290 292 292 290 288 288 287 286 285 285 284 283 282 281 281 281 281 281
300 301 307 305 302 300 301 302 299 298 297 297 297 296 294 292 290 288 288 287 287 287 286 286 286 286 289 289 288 288 287 286 285 285 285 285 285 284 284 283 282 280 279 279
297 297 300 299 297 297 298 299 299 296 295 294 293 292 291 290 288 286 285 284 283 283 283 283 283 282 284 284 284 284 283 283 283 284 284 284 284 284 284 283 281 280 279 277
294 296 296 296 294 292 293 295 296 293 292 290 289 287 285 284 283 282 281 282 282 281 281 280 280 281 282 282 282 282 281 282 282 282 282 283 283 282 282 281 280 279 278 277
293 295 294 294 292 290 289 290 290 290 288 287 285 283 282 281 280 279 279 278 278 278 278 278 279 279 280 281 280 279 279 279 280 280 280 280 280 279 279 278 277 275 273 272
288 289 289 290 289 288 287 286 285 285 284 283 281 281 280 280 279 278 277 276 276 275 276 277 277 278 278 279 279 278 278 278 277 277 277 277 277 277 277 276 275 274 273 270
285 286 286 286 286 285 284 282 281 279 278 278 277 277 277 277 277 276 276 276 276 276 275 275 275 275 275 276 277 277 277 276 275 275 275 274 274 274 273 273 272 272 271 270
283 283 282 281 281 281 280 278 278 276 276 276 276 275 275 275 274 274 273 273 274 274 273 273 273 273 273 273 274 274 274 273 273 272 272 272 271 270 269 269 269 269 269 268
281 280 280 279 278 277 276 276 275 275 275 274 274 274 274 274 275 275 275 274 272 271 271 271 272 272 271 272 272 271 271 270 270 270 269 269 269 268 268 268 267 267 267 266
280 279 278 278 277 277 276 276 275 275 274 274 273 273 273 272 271 270 271 271 270 270 270 269 268 268 269 269 269 269 269 268 268 268 268 268 267 267 266 266 266 265 265 265
279 278 277 277 276 275 274 274 273 273 273 272 272 272 272 272 272 272 271 269 268 268 268 267 266 266 267 267 267 267 267 266 266 266 266 266 265 265 265 264 264 264 264 263
278 277 277 277 276 276 275 274 273 273 272 271 271 271 271 270 269 268 267 266 266 266 266 265 265 265 266 266 266 265 265 265 265 264 263 263 264 264 263 262 262 262 261 261
277 277 277 276 276 275 274 273 273 272 271 271 270 270 269 269 268 267 266 265 265 265 265 264 264 264 265 264 264 264 264 263 264 264 263 263 263 262 262 262 261 260 260 260
276 275 275 275 275 275 274 274 273 272 271 270 269 268 267 267 266 265 264 264 264 264 265 264 263 264 264 263 263 263 263 263 263 262 262 262 261 261 260 260 259 259 259 259
276 275 275 274 273 273 273 273 272 271 270 269 268 267 266 266 265 264 264 264 264 264 264 263 263 262 262 263 262 262 262 262 261 261 261 260 260 260 259 258 258 258 258 257

GFSNGP_925_thetae_087.txt.gz
Theta_e
311 311 312 316 316 317 318 318 320 319 319 319 319 319 322 322 322 322 322 322 323 328 330 330 330 331 330 329 328 327 326 326 326 327 326 326 326 326 325 324 325 324 324 324
314 312 313 313 314 315 316 317 318 318 319 319 319 320 321 319 320 321 322 322 322 323 327 330 329 329 330 330 329 328 327 326 325 326 325 326 326 326 325 325 324 324 323 323
314 311 316 318 314 315 318 319 319 319 318 318 319 320 321 320 320 321 321 322 322 322 322 325 329 329 329 329 329 328 327 326 326 325 325 325 325 324 324 324 323 323 323 322
315 312 313 312 318 318 320 320 322 321 319 318 318 320 320 320 321 321 322 322 322 321 321 321 323 328 328 329 328 329 328 327 326 326 325 324 324 323 323 323 323 323 323 322
315 314 312 311 315 315 317 317 322 324 318 317 318 318 319 320 321 322 322 323 323 322 321 319 320 322 327 328 328 328 328 327 327 326 325 325 325 324 324 324 321 319 317 315
313 313 316 319 316 317 318 324 321 323 324 321 321 325 324 323 323 323 323 323 323 322 321 320 319 321 324 327 327 327 327 326 326 326 325 325 325 318 313 314 312 309 304 301
313 313 314 317 317 318 322 323 316 319 324 324 324 323 322 321 322 322 322 321 321 322 321 321 321 322 322 324 327 327 326 326 325 325 325 319 313 311 307 303 299 295 293 291
313 312 315 314 317 321 318 318 318 320 320 321 321 320 320 322 322 322 321 320 319 318 317 318 321 322 323 322 317 315 313 312 311 311 311 307 305 299 297 295 291 288 288 286
312 312 316 313 317 314 313 315 316 317 318 318 320 320 320 322 322 320 317 316 314 312 309 308 312 313 309 307 307 306 305 301 300 300 298 297 295 293 291 290 289 287 285 284
315 314 314 313 313 312 311 311 311 313 318 319 320 319 320 322 320 316 312 311 308 305 303 303 303 303 303 301 299 297 295 293 293 292 291 291 291 291 290 289 287 286 285 283
310 314 313 313 311 310 310 310 308 309 315 315 320 321 320 317 311 307 303 301 301 299 297 296 299 298 297 296 296 293 292 291 289 288 287 286 286 287 286 287 286 284 283 284
317 312 312 312 310 307 307 308 306 306 308 309 311 312 308 302 298 297 296 295 294 293 293 292 292 292 295 294 293 291 290 289 288 287 286 285 284 284 284 285 285 285 284 283
307 305 307 307 308 304 305 306 305 304 303 304 304 303 299 294 292 291 290 290 289 290 289 287 289 291 292 292 290 289 288 287 287 286 285 284 283 283 282 282 281 281 281 281
301 303 307 303 302 300 300 303 304 302 300 300 300 297 293 291 288 287 286 286 286 286 285 285 284 285 286 288 289 287 286 286 286 285 284 284 284 283 283 282 280 279 278 278
298 299 300 299 299 297 297 297 301 300 298 296 293 291 291 289 287 285 284 284 283 283 283 283 283 283 284 285 284 284 285 285 285 285 285 285 284 283 281 280 279 279 278 277
295 297 298 298 297 296 295 294 295 295 293 291 289 286 285 284 282 282 281 281 281 281 281 281 281 282 282 283 283 283 283 283 284 284 284 284 283 282 282 280 279 277 277 278
293 296 295 296 295 294 291 290 290 289 289 287 285 284 282 281 280 279 279 278 279 279 279 280 280 281 281 281 281 281 281 281 281 281 281 281 281 280 279 277 276 275 274 273
288 289 290 291 291 291 289 286 285 284 283 281 280 280 279 279 279 278 278 277 277 277 278 278 279 279 280 280 280 280 280 279 279 279 279 279 279 279 278 277 276 275 274 272
286 286 286 286 287 287 286 283 281 280 279 278 277 277 276 276 277 277 277 277 277 277 276 276 277 278 278 279 279 279 279 279 278 278 277 277 277 276 276 275 274 274 273 272
284 283 282 282 282 281 281 279 279 278 278 277 277 277 277 276 276 275 274 273 274 275 275 276 276 276 276 276 277 276 276 275 275 275 275 274 273 272 272 272 272 272 271 271
282 281 280 279 279 278 278 278 277 277 276 275 275 274 274 274 276 276 275 274 273 272 272 272 273 273 273 274 274 274 273 273 273 273 273 272 272 271 271 271 270 270 270 269
280 279 279 279 278 278 277 277 276 276 276 275 274 274 274 273 272 271 271 272 271 270 270 270 270 270 271 272 272 272 272 272 272 271 271 271 271 270 270 269 269 269 268 268
279 279 278 277 277 276 276 275 275 274 273 273 272 272 271 272 273 273 271 270 270 269 269 268 268 269 270 271 270 270 270 270 269 269 269 269 269 268 268 267 268 267 267 266
279 279 278 278 277 277 276 275 274 273 272 272 272 273 273 271 270 269 268 267 266 267 267 267 267 268 269 269 269 269 269 268 268 268 267 267 267 267 267 266 265 266 265 264
278 278 278 277 277 276 275 274 274 274 273 272 271 270 270 270 270 269 268 268 268 267 267 266 266 267 267 267 267 267 266 266 267 267 267 266 266 266 265 265 264 263 263 264
279 278 277 278 278 277 276 276 275 274 273 272 271 270 269 269 268 268 267 267 267 267 267 266 267 267 266 266 266 266 266 266 265 264 265 265 265 265 264 263 263 263 263 262
278 278 277 276 276 276 276 275 275 273 272 271 270 269 268 268 267 268 268 267 267 267 267 266 265 265 265 266 265 265 265 265 263 263 264 264 263 263 262 261 261 261 261 260

GFSNGP_925_thetae_090.txt.gz
Theta_e
310 309 310 311 312 317 318 317 319 319 318 319 319 319 320 322 322 323 322 322 325 329 330 331 332 332 331 329 327 327 327 328 326 325 325 324 325 325 326 326 324 323 323 322
313 312 312 311 311 312 315 315 315 316 317 317 318 318 319 321 322 321 322 322 323 324 327 330 331 332 332 330 328 327 327 328 328 328 327 326 325 326 325 326 326 325 325 324
314 312 312 315 314 312 312 314 315 319 321 320 320 319 319 320 322 321 322 322 323 322 323 326 330 330 332 332 330 329 328 327 327 328 328 328 328 327 327 325 325 324 325 325
315 314 314 312 311 317 316 317 318 317 317 319 325 320 318 320 321 321 323 324 324 324 323 323 322 329 330 331 331 329 329 328 328 327 328 327 327 327 327 327 326 325 325 325
315 314 312 312 311 314 317 317 319 322 322 324 325 320 319 323 323 324 324 324 324 323 323 322 322 321 328 329 330 331 329 329 328 327 327 327 326 326 326 326 326 326 323 321
314 314 314 316 319 318 317 320 319 317 318 321 323 327 327 324 324 324 323 322 322 323 323 323 323 320 321 328 329 329 330 329 328 328 327 326 325 325 322 321 314 313 311 310
315 314 313 314 316 316 321 320 317 319 317 320 321 320 320 323 322 322 322 321 320 320 319 319 320 322 323 324 327 328 328 328 327 327 325 320 317 313 311 310 303 298 297 294
314 313 314 317 316 320 317 316 316 316 315 318 320 320 319 319 322 321 319 317 314 314 311 310 313 317 314 311 310 310 318 310 309 310 311 312 311 304 299 296 292 289 288 286
312 313 316 313 315 312 312 312 311 312 313 319 320 321 320 322 319 314 311 309 307 305 304 302 303 305 307 304 305 303 300 301 301 302 301 297 297 294 293 291 288 286 285 284
313 313 315 314 312 310 310 310 308 308 310 313 316 318 317 313 310 305 302 300 299 298 296 295 297 297 296 296 297 298 295 292 292 292 291 291 292 291 289 288 287 286 285 284
314 314 314 312 310 307 307 308 307 307 307 309 310 309 305 301 300 298 297 295 294 294 294 294 293 293 293 292 292 290 289 289 288 287 287 286 286 286 286 286 286 285 285 284
316 309 311 310 305 304 305 306 306 305 305 306 303 301 299 295 293 292 292 292 292 291 291 291 292 292 293 293 290 289 288 287 286 286 285 284 284 283 283 283 283 283 283 283
305 304 306 304 303 301 302 302 304 303 301 301 299 296 293 291 289 288 289 288 287 286 286 286 286 288 290 293 293 290 287 286 285 284 284 283 282 281 280 280 280 281 281 281
300 302 304 301 301 300 299 299 302 300 298 295 293 293 290 288 287 286 285 285 285 284 284 285 285 285 287 288 287 287 286 285 284 284 283 283 282 281 280 279 279 278 278 279
297 299 300 300 300 299 297 297 299 296 294 292 289 287 286 285 283 283 283 283 282 282 282 283 283 284 285 286 286 286 286 286 285 284 283 282 281 280 279 278 278 278 277 277
295 298 297 298 297 296 294 293 293 292 290 288 286 284 282 281 280 280 280 280 281 281 281 282 282 282 283 284 284 284 284 284 284 283 283 282 281 279 278 277 276 276 277 277
292 293 292 293 293 293 291 289 288 287 286 285 283 282 280 279 279 279 278 278 279 279 280 281 281 282 282 282 282 282 282 281 281 281 281 279 278 277 276 275 274 274 274 275
288 288 288 288 289 290 288 286 284 283 282 281 279 279 279 279 279 278 278 277 277 277 278 278 280 280 280 280 280 280 280 280 280 280 279 279 278 278 277 276 274 273 273 273
285 285 284 284 285 285 284 282 281 280 279 278 277 277 276 276 275 275 275 275 276 276 276 277 277 278 278 279 279 279 278 278 278 277 276 276 276 276 275 274 274 273 272 272
283 282 281 280 280 280 280 280 279 279 278 278 278 277 277 276 275 274 273 273 273 273 274 275 275 275 276 276 276 275 275 275 275 275 274 273 273 273 272 272 272 272 271 270
281 280 279 279 278 278 278 277 276 276 275 275 274 274 273 272 274 274 273 272 272 271 272 272 273 274 274 274 274 274 274 274 274 273 273 272 272 272 271 271 270 270 270 269
280 279 278 278 277 277 276 276 276 276 275 275 275 274 274 272 271 271 271 271 270 270 270 271 271 272 272 272 272 272 272 272 272 272 272 271 271 270 270 269 269 269 268 268
279 278 277 277 277 276 275 275 274 274 274 273 272 271 270 270 271 271 270 269 269 269 269 269 270 270 271 271 270 270 270 270 270 270 269 269 269 268 267 268 268 267 266 266
279 279 278 278 277 276 276 275 274 273 273 272 272 273 272 271 270 269 268 267 267 267 267 268 268 269 269 269 269 269 269 269 269 268 268 268 268 267 266 266 266 266 265 265
278 278 277 277 277 276 275 275 274 273 273 272 271 270 270 270 270 269 269 269 269 268 268 267 268 268 268 268 268 267 266 267 267 267 267 266 266 266 265 265 264 263 264 264
279 279 278 279 278 278 277 276 275 274 273 272 271 270 270 269 268 268 268 268 268 268 267 266 267 267 267 267 267 267 266 266 266 265 266 265 265 265 264 263 263 263 263 262
279 278 278 277 276 276 276 276 275 274 273 271 270 270 269 269 269 269 269 268 268 268 267 266 265 265 266 266 266 266 266 265 264 264 264 264 264 264 263 262 262 261 261 261

GFSNGP_925_thetae_093.txt.gz
Theta_e
311 310 310 310 310 310 310 319 321 319 318 316 316 317 317 318 318 319 320 320 323 324 330 330 329 328 327 325 324 323 323 323 322 321 321 322 322 321 320 320 320 319 318 316
315 313 313 312 312 311 311 311 313 315 314 317 318 318 322 323 319 318 319 320 321 321 325 330 329 329 328 326 325 325 325 323 323 322 322 323 324 324 323 322 321 320 320 319
315 313 313 313 312 312 312 312 311 314 320 322 323 323 322 322 323 320 320 322 322 322 321 320 322 329 329 327 326 325 325 325 324 323 323 323 324 324 324 325 325 323 322 321
314 312 313 313 311 312 318 319 319 321 320 319 319 319 321 321 320 323 323 322 322 321 321 320 321 321 321 329 327 326 325 325 326 326 325 324 324 323 323 324 324 325 324 323
313 313 313 312 318 319 319 321 318 317 316 317 318 319 322 318 319 321 321 321 320 319 318 317 317 319 321 322 328 327 326 326 326 326 327 326 326 325 324 325 324 324 324 323
310 314 312 317 315 316 316 321 317 317 317 317 316 322 319 318 319 318 315 315 314 312 310 309 309 314 316 314 317 325 327 327 326 326 326 326 326 326 326 326 321 317 316 314
310 313 312 316 315 316 322 318 314 314 315 317 316 318 319 319 316 313 310 308 308 306 304 303 304 310 308 307 307 306 308 325 327 327 327 326 326 322 317 312 307 303 300 296
309 313 312 313 315 318 312 311 310 310 312 317 316 318 321 316 309 307 304 303 302 302 300 299 299 302 301 300 301 302 305 302 303 309 314 318 317 308 306 305 299 293 292 289
310 311 312 312 311 310 309 308 307 308 309 310 311 310 308 307 303 301 299 298 298 297 297 297 297 297 296 295 295 296 297 296 294 296 298 298 299 297 295 293 290 288 287 285
311 314 314 311 309 308 307 307 305 305 306 306 305 303 302 300 298 297 296 295 295 296 295 295 294 294 293 293 293 291 289 289 289 289 288 289 290 291 290 289 288 287 286 284
314 313 309 306 305 304 305 305 305 303 303 301 300 299 297 295 294 293 292 292 291 291 290 290 291 292 291 291 294 288 287 286 286 285 285 285 285 285 285 286 286 286 285 285
309 303 308 304 302 302 302 301 303 301 300 297 296 294 292 290 289 289 289 288 288 288 288 287 288 289 290 290 289 290 286 285 284 284 283 283 283 283 283 283 285 284 284 284
301 301 302 302 300 299 300 300 300 298 295 294 293 291 289 288 286 285 285 285 285 285 285 286 286 287 288 289 288 286 285 284 283 283 282 282 282 282 281 281 282 282 282 282
296 299 301 300 299 297 296 297 296 294 291 289 289 288 286 285 284 284 283 283 283 284 284 285 285 285 286 286 285 284 284 283 282 281 281 280 280 280 280 279 279 279 280 280
294 296 297 298 297 294 293 294 293 291 289 287 285 283 282 282 281 281 281 282 282 282 283 283 283 284 285 285 285 284 283 283 282 281 280 280 279 279 278 278 278 277 277 277
292 292 292 293 293 293 290 289 289 288 286 284 283 281 280 280 279 279 279 279 280 281 281 281 282 282 283 283 283 283 283 283 282 281 279 278 278 277 277 276 277 277 276 275
289 289 289 289 290 289 288 286 286 284 283 282 282 280 280 279 279 278 278 277 278 278 279 280 280 281 281 281 281 281 281 280 279 279 278 277 276 275 274 274 274 274 274 273
286 285 285 285 286 286 284 283 282 281 280 280 279 278 277 277 277 277 277 277 277 277 277 278 279 279 279 279 279 279 279 279 278 278 277 276 275 274 274 273 273 272 272 272
282 282 281 281 282 281 281 280 279 279 278 277 276 275 275 274 274 273 273 273 274 275 275 276 277 278 278 278 277 277 276 276 275 275 275 274 274 273 273 272 271 271 270 270
280 279 278 278 277 278 276 276 276 275 276 275 275 275 274 273 273 272 272 271 272 272 274 274 275 275 275 275 275 275 274 274 274 273 273 272 272 272 271 271 270 270 269 269
278 278 277 277 276 276 275 275 274 274 274 273 272 272 271 271 272 271 271 271 271 272 272 273 273 273 273 273 273 273 273 272 272 272 271 271 271 270 270 270 269 269 269 268
277 276 276 275 275 274 274 273 273 273 272 273 273 272 271 271 270 270 270 270 270 270 271 271 271 272 272 272 272 272 271 271 271 270 270 270 269 269 269 268 268 268 267 267
277 276 275 274 274 273 273 273 273 272 272 271 271 270 269 269 269 269 269 269 269 269 270 270 270 270 270 270 270 270 270 269 269 269 268 268 268 268 267 267 267 266 266 265
277 277 276 275 275 274 273 273 272 272 271 271 272 271 270 269 268 268 267 268 268 268 268 269 269 269 269 269 269 269 268 268 268 267 267 267 266 266 266 266 265 265 265 264
276 276 275 275 274 274 273 273 272 272 271 270 270 270 270 269 269 269 269 269 268 268 268 267 268 268 268 267 267 267 267 267 267 266 266 266 265 265 264 264 264 264 263 263
278 278 278 278 277 276 275 274 273 272 271 270 270 269 269 269 268 268 268 268 267 267 267 267 267 266 266 267 266 266 266 265 265 265 265 265 264 264 263 263 263 262 262 262
278 277 276 276 275 275 275 274 273 272 271 270 269 269 269 269 269 268 268 268 267 267 266 266 266 266 266 266 265 265 265 264 264 264 264 263 263 263 262 262 262 261 261 261

GFSNGP_925_thetae_096.txt.gz
Theta_e
313 311 310 310 312 311 311 312 317 320 319 319 320 321 322 322 322 321 320 319 325 328 329 328 326 324 323 322 322 321 321 321 320 321 322 321 319 317 317 316 316 315 315 315
313 312 312 313 312 311 312 311 312 315 316 321 320 319 321 323 323 320 321 323 322 324 328 329 327 325 324 323 322 321 321 320 320 320 321 322 321 319 318 318 318 316 315 315
314 312 312 313 312 312 311 319 319 317 321 318 320 320 320 323 323 323 323 322 321 320 319 319 321 327 326 324 323 322 321 321 321 321 320 321 322 321 319 319 319 319 318 316
313 309 310 312 314 318 319 319 317 317 317 317 316 319 319 320 320 319 319 317 314 313 312 310 312 317 319 326 325 323 323 322 322 322 321 320 321 321 322 321 320 320 319 319
311 310 311 312 316 318 318 319 317 316 317 316 315 318 318 320 315 313 312 311 309 307 307 306 308 310 311 312 321 325 324 324 323 322 322 321 321 322 322 322 322 322 322 321
309 313 312 317 316 314 316 321 312 313 314 316 316 318 318 318 313 310 308 307 306 304 303 302 303 305 305 305 306 307 308 311 320 324 323 323 322 322 322 322 322 322 322 323
310 311 312 315 315 314 314 315 310 310 313 315 315 311 309 306 305 304 303 302 303 302 301 299 299 302 301 300 301 301 301 304 310 320 323 324 324 323 322 321 317 311 308 305
310 311 312 312 313 314 311 310 308 308 310 312 311 310 308 303 302 299 299 299 299 299 297 296 296 298 297 296 295 295 295 296 297 299 304 310 317 312 309 309 301 294 291 290
310 309 312 309 309 308 307 306 305 305 305 305 304 304 302 300 298 297 295 295 295 295 294 293 293 293 293 292 292 293 293 290 291 292 292 293 295 296 295 294 291 289 287 286
312 313 311 308 306 305 305 304 303 301 301 301 300 299 297 296 294 293 292 291 291 292 291 291 291 291 290 290 289 289 288 288 287 287 287 288 288 289 290 290 289 288 286 285
312 307 306 303 302 302 301 301 301 298 297 296 296 295 293 292 291 290 289 289 289 289 289 289 289 289 290 289 288 287 286 286 286 285 285 285 284 285 285 286 286 286 285 284
305 302 306 302 299 300 299 300 297 297 295 293 292 292 290 288 287 287 287 286 286 286 287 287 287 288 288 288 287 285 284 284 284 284 284 284 284 284 284 285 285 285 285 285
300 298 300 299 297 296 298 295 293 291 290 291 289 288 287 286 285 285 284 285 285 284 285 285 286 286 286 285 284 284 283 283 282 283 283 283 283 283 283 283 283 283 283 283
295 298 300 297 294 293 294 293 291 288 286 285 285 284 283 283 283 283 283 283 283 283 283 284 284 285 285 285 283 282 281 281 280 280 280 280 280 280 280 280 280 280 280 279
293 293 294 294 292 291 290 291 289 287 285 283 282 282 282 281 281 281 281 281 282 282 282 282 282 283 284 284 283 282 281 280 279 279 279 279 278 278 278 277 277 276 275 276
290 290 290 291 291 290 288 287 287 286 284 282 281 281 280 279 279 279 279 279 279 279 280 280 280 281 282 282 281 281 280 279 279 278 277 277 277 277 277 276 276 275 274 273
288 288 287 288 288 286 284 284 284 283 282 282 281 280 279 279 278 278 277 277 277 277 278 279 279 281 281 281 280 279 279 278 277 277 276 275 275 275 275 274 273 272 271 271
283 282 283 284 285 284 282 281 280 280 279 278 277 276 276 275 275 274 274 275 275 276 276 277 278 279 279 279 279 278 278 277 277 276 275 274 274 273 273 272 271 270 270 270
280 280 279 281 281 280 280 279 279 277 276 275 274 274 273 272 272 272 273 273 273 273 274 275 276 277 277 277 277 277 276 275 275 274 274 273 272 272 271 271 270 270 269 269
279 278 277 276 276 276 274 274 274 274 274 273 273 272 271 271 271 271 271 271 271 272 274 274 275 275 275 276 276 275 275 274 273 272 272 271 271 271 270 270 270 269 268 268
275 275 274 274 274 274 274 274 273 272 272 272 271 270 270 271 271 271 271 271 271 272 273 273 273 273 273 273 273 273 272 272 271 271 271 270 270 270 269 269 269 268 267 267
275 273 274 274 273 273 273 273 272 272 272 271 271 270 270 270 270 269 270 270 270 271 271 271 271 272 272 272 272 272 271 271 270 270 270 269 269 269 268 268 268 267 267 266
274 274 273 272 272 272 272 272 272 271 271 270 270 270 269 269 269 268 269 269 270 270 270 270 270 271 271 271 270 270 270 270 269 269 269 268 268 268 267 266 266 266 266 265
274 273 273 273 273 272 272 272 271 271 271 271 270 269 269 268 268 268 268 268 269 269 268 269 269 269 269 269 269 268 268 268 267 267 267 266 266 266 266 265 265 265 264 264
275 275 274 273 272 272 272 271 271 270 270 270 270 270 269 269 269 268 268 268 268 268 268 268 268 267 268 268 267 267 267 266 266 266 266 265 265 264 264 264 264 264 263 263
276 276 275 275 274 274 273 272 271 270 269 269 269 269 269 268 268 268 267 267 267 267 267 267 267 267 266 266 266 266 266 265 265 265 265 264 264 263 263 263 263 262 262 262
277 276 276 275 275 275 274 273 272 271 270 269 269 269 269 269 268 268 267 267 266 266 266 266 266 266 265 265 265 264 264 264 264 264 263 263 263 262 262 262 262 261 261 261

GFSNGP_925_thetae_099.txt.gz
Theta_e
314 312 310 311 312 314 311 311 313 316 316 320 321 320 320 321 322 322 319 321 320 325 327 325 323 323 322 321 320 321 321 320 319 318 317 317 316 316 315 315 315 314 314 314
312 310 310 312 311 311 311 311 312 313 314 318 319 319 321 323 324 321 323 319 316 316 316 323 324 323 322 321 321 320 320 321 320 321 320 318 317 317 317 316 315 315 314 314
312 311 309 312 311 311 318 317 319 319 319 317 318 321 321 321 320 319 317 315 312 311 311 312 313 316 323 322 321 321 321 321 320 320 321 321 320 318 317 317 316 315 315 314
310 308 307 312 317 316 318 317 316 318 316 316 315 320 319 315 315 314 312 311 309 308 307 306 308 309 312 322 322 322 321 321 320 319 320 320 321 321 319 318 318 317 316 315
308 309 308 315 315 317 318 316 313 314 315 316 315 317 312 308 309 309 308 308 306 305 303 303 305 305 306 307 316 321 316 320 321 321 320 320 320 321 321 319 319 318 319 318
307 311 309 314 315 313 315 319 311 311 314 313 313 316 312 307 304 304 303 302 302 300 299 298 299 302 303 303 304 304 304 304 309 315 321 321 320 320 320 320 321 320 319 319
308 308 309 312 313 312 314 312 309 309 311 314 313 310 307 305 302 300 298 298 298 297 296 295 296 298 297 297 297 297 298 300 303 306 310 315 321 321 320 321 321 319 316 312
310 308 310 310 312 310 308 309 307 307 308 308 307 306 303 301 300 297 295 294 295 295 294 293 293 294 293 292 292 292 292 293 294 297 301 303 309 308 312 310 305 300 295 292
308 309 310 306 307 306 305 304 304 304 303 303 301 300 299 297 296 294 292 292 292 292 292 291 292 291 291 289 289 289 288 288 289 290 291 294 295 295 294 294 291 290 289 288
311 311 307 306 304 302 303 301 299 298 297 298 298 297 295 293 292 291 290 290 290 290 290 290 290 290 289 288 288 287 286 286 286 286 287 288 290 290 289 288 287 286 286 285
309 305 305 301 300 300 301 298 296 294 293 293 295 293 291 290 289 288 288 288 288 288 288 288 288 287 287 287 286 285 285 285 285 285 285 285 285 286 287 288 291 286 285 285
302 302 303 300 298 298 295 294 293 293 293 291 291 290 288 287 286 286 286 286 285 286 286 286 286 285 285 285 285 284 284 284 284 284 285 285 285 284 284 285 285 285 285 284
299 297 299 297 295 294 292 290 289 288 288 288 286 286 285 285 284 284 284 284 284 284 284 284 285 285 284 284 283 281 280 281 281 282 282 283 283 283 282 281 281 282 283 283
294 299 297 294 293 292 291 289 288 285 284 283 283 283 283 283 282 282 282 283 283 282 282 283 283 284 283 282 281 280 280 280 280 280 279 279 279 278 278 277 277 277 278 279
292 292 293 292 291 289 289 288 286 285 284 282 282 281 281 281 280 280 280 281 281 281 281 281 281 282 282 281 280 280 279 278 278 278 278 278 278 277 276 276 275 274 275 276
290 289 290 291 289 287 286 286 285 284 283 282 281 280 279 279 279 278 278 278 278 278 278 279 280 280 281 280 279 278 278 277 277 277 277 277 276 276 275 274 273 273 273 273
288 288 286 287 286 284 283 282 282 282 282 281 280 279 279 278 277 276 275 275 275 276 277 277 278 279 280 279 279 278 277 277 277 276 276 275 275 274 273 272 271 270 270 271
282 281 282 283 284 283 281 281 280 279 278 277 275 274 274 274 274 273 273 274 275 275 275 276 277 278 278 278 278 277 277 276 275 275 274 274 273 273 272 271 270 269 269 270
279 279 279 280 280 280 279 278 277 276 274 273 273 272 271 272 272 272 272 272 272 273 274 275 276 277 277 277 277 276 276 275 274 273 273 273 272 271 270 270 269 269 269 268
278 277 276 275 274 275 274 273 273 272 272 272 272 271 270 271 271 271 271 271 271 272 273 274 275 275 275 276 276 275 275 274 273 272 272 271 271 270 270 269 269 268 267 267
273 273 272 272 272 272 272 272 272 271 271 271 271 270 270 270 271 271 270 270 271 272 272 273 273 273 274 274 274 274 273 272 272 271 270 270 270 269 269 268 268 267 267 266
272 272 272 272 272 271 272 272 272 271 271 270 270 270 270 269 269 270 270 270 270 271 271 271 271 272 272 273 272 272 271 271 270 270 270 269 269 268 268 268 267 267 266 266
272 272 272 272 271 271 271 271 271 271 270 270 270 269 269 269 269 269 268 269 270 270 270 270 270 271 271 271 271 270 270 270 269 269 269 269 268 268 267 267 266 266 265 265
273 272 272 272 272 271 270 271 271 270 270 269 269 269 269 268 268 268 268 269 269 269 269 269 269 269 270 269 269 269 268 268 268 268 267 267 266 266 266 266 265 265 264 264
274 273 273 272 272 271 271 271 270 270 270 270 270 269 269 268 268 268 268 268 268 268 268 267 268 268 268 268 267 267 267 267 266 266 266 265 265 265 264 264 264 264 263 263
274 274 273 273 273 272 272 271 270 269 269 269 269 269 268 268 268 267 267 267 267 267 267 267 267 266 266 266 266 266 265 265 265 265 264 264 263 263 263 263 263 262 262 262
276 275 275 274 274 274 273 272 272 270 270 269 269 268 268 268 268 267 267 266 266 266 266 266 265 265 265 265 265 264 264 264 264 263 263 263 262 262 262 262 261 261 261 261

GFSNGP_925_thetae_102.txt.gz
Theta_e
312 313 312 312 313 313 312 311 312 312 313 319 318 319 320 321 320 321 319 318 314 314 314 322 322 322 321 321 320 319 319 318 316 315 316 315 315 315 315 315 314 314 314 314
312 312 310 311 313 312 312 313 312 311 313 317 317 319 319 319 319 319 316 314 312 310 311 311 312 321 321 321 321 320 319 319 318 317 316 316 316 315 314 314 314 314 313 314
311 311 309 311 310 312 316 316 317 316 317 316 317 320 317 315 315 314 312 311 309 307 306 306 307 307 317 321 321 321 321 320 319 319 318 317 316 316 316 315 314 314 314 314
311 309 306 314 315 314 316 315 316 315 314 315 315 312 310 309 309 309 308 306 305 303 301 301 303 304 308 319 322 321 320 321 320 320 320 320 318 317 317 316 316 315 315 315
310 310 307 315 315 316 317 316 313 313 315 312 313 315 311 307 305 304 302 302 300 298 297 297 299 301 303 304 307 308 309 311 314 318 319 320 320 320 319 318 317 317 316 315
309 311 308 310 314 312 314 318 311 310 314 312 310 314 312 305 302 300 298 298 298 296 295 294 296 297 297 297 297 298 299 299 301 306 310 317 319 319 320 320 318 318 317 317
309 309 309 309 310 311 313 310 308 309 311 312 312 309 305 301 299 297 296 295 295 294 293 293 293 294 293 293 292 293 293 293 295 298 299 303 312 318 319 320 319 316 312 306
308 309 309 306 310 309 306 305 305 304 304 304 304 302 300 298 296 294 293 293 293 293 292 291 291 291 290 290 290 290 290 290 291 292 293 296 300 303 308 312 307 297 295 292
308 307 306 303 304 303 302 301 301 299 299 300 299 299 296 295 293 292 290 290 291 291 291 290 289 288 289 288 288 288 288 287 288 289 289 290 291 292 293 293 291 288 287 286
311 308 305 303 301 299 298 297 295 295 295 297 296 294 293 291 290 289 288 288 288 289 288 288 287 286 286 286 286 286 286 286 286 286 286 287 287 288 288 288 288 287 286 285
307 304 302 300 301 298 296 295 294 292 291 292 293 291 290 288 287 287 287 286 287 287 287 287 286 285 285 286 285 285 285 285 285 285 285 284 284 285 285 286 286 286 285 285
303 299 301 299 297 294 292 291 290 290 290 287 288 288 287 286 285 285 285 285 285 285 285 285 285 283 283 284 283 283 283 283 284 284 283 283 282 282 283 284 284 284 284 284
297 297 297 296 294 292 290 288 286 285 285 284 283 284 284 284 283 283 283 283 283 283 283 283 283 282 282 282 282 281 281 281 281 281 280 281 281 281 280 280 280 281 281 281
293 297 296 292 292 291 289 287 286 283 282 282 282 282 282 282 282 281 282 282 282 282 282 282 282 282 281 281 280 280 279 279 279 279 278 278 277 276 275 275 274 275 278 279
290 291 293 291 289 288 287 286 285 284 283 282 281 280 280 280 279 279 278 280 280 279 280 280 280 280 280 280 279 279 278 278 278 277 277 276 276 275 275 274 273 273 274 276
289 288 289 288 287 285 285 284 284 284 282 281 280 279 278 278 277 277 276 276 277 277 277 278 278 279 279 279 278 278 277 277 277 277 276 276 275 274 273 272 272 271 272 272
288 287 285 286 285 283 282 282 282 281 280 279 278 277 277 276 276 275 274 275 275 275 275 276 277 278 279 278 278 277 277 276 276 276 275 275 274 273 272 271 269 268 268 270
281 281 282 282 283 282 281 280 279 277 276 275 274 273 273 273 273 273 273 274 274 274 274 275 276 277 278 278 278 277 276 276 275 274 274 273 272 272 270 269 268 268 268 269
279 279 278 279 279 279 278 277 275 274 273 272 272 271 271 271 271 272 272 272 272 272 273 274 275 276 276 276 277 277 276 275 274 273 272 272 271 270 269 269 268 268 268 267
276 276 275 274 273 274 272 272 272 271 271 272 271 271 270 271 271 271 271 270 270 271 273 274 274 274 275 275 276 275 275 274 273 272 272 271 270 269 268 268 268 267 267 266
272 272 272 271 271 271 271 272 271 270 270 271 270 269 269 270 270 271 270 270 270 271 272 273 273 273 273 274 274 274 273 272 271 271 270 269 269 268 268 267 267 266 266 265
271 270 270 271 270 270 271 271 271 270 270 270 270 270 270 269 269 269 269 269 269 271 271 271 271 272 272 272 272 272 271 271 270 270 269 269 268 268 267 267 266 266 265 265
271 271 271 271 270 270 270 270 270 270 270 269 269 269 269 269 269 269 268 269 269 269 269 270 270 271 271 271 270 270 270 270 269 269 268 268 268 267 267 266 266 266 265 265
272 272 271 271 271 271 270 270 270 269 269 269 269 269 269 268 268 268 268 268 268 269 268 268 269 269 269 269 269 269 268 268 268 268 267 267 267 266 266 265 265 265 264 264
273 272 272 272 271 270 270 270 270 270 269 269 269 269 269 268 268 267 267 267 268 267 267 267 268 268 268 267 267 267 267 266 266 266 266 265 265 265 264 264 264 263 263 263
274 273 273 273 272 272 271 271 269 269 269 268 268 268 268 268 267 267 267 267 267 267 266 266 266 266 266 266 266 265 265 265 265 264 264 264 263 263 263 263 263 262 262 262
275 274 274 274 273 273 272 271 271 270 269 268 268 268 268 267 267 266 266 266 266 266 265 265 265 265 265 264 264 264 264 264 263 263 263 262 262 262 262 261 261 261 261 261

GFSNGP_925_thetae_105.txt.gz
Theta_e
311 312 313 312 312 312 313 312 314 313 314 313 318 320 320 319 320 318 316 314 312 309 307 307 311 318 320 320 320 319 318 317 315 314 315 316 316 316 316 315 316 317 316 316
313 312 312 310 310 313 314 313 314 314 314 317 318 318 316 315 315 314 312 309 308 305 304 303 304 308 320 321 320 319 318 317 316 315 315 315 316 316 316 315 315 316 315 316
310 311 309 308 309 312 313 316 317 315 316 316 317 315 312 311 310 309 307 305 304 302 301 300 300 303 310 318 321 320 319 319 317 316 316 316 316 316 315 315 315 315 315 314
310 310 309 315 315 314 315 315 314 314 316 313 315 311 308 306 305 304 302 302 300 299 297 296 298 299 302 316 321 321 321 320 319 318 317 316 316 316 316 315 315 315 314 314
309 310 308 313 315 316 317 315 313 314 315 312 312 311 307 303 301 300 299 298 297 296 295 294 295 296 297 299 301 302 302 303 305 314 318 319 317 317 317 317 316 315 315 314
309 309 310 312 314 312 314 315 311 311 313 313 311 314 309 301 298 297 295 295 296 294 293 292 293 294 294 294 294 294 295 295 297 301 303 308 312 318 318 318 317 316 315 314
308 308 308 309 309 311 315 313 309 308 308 309 309 305 301 298 296 294 293 293 293 293 291 290 291 291 291 291 291 291 291 292 293 295 296 299 302 307 314 318 316 310 303 300
309 308 307 305 309 312 308 304 304 303 303 303 302 299 297 295 293 292 291 290 291 291 290 289 289 290 289 289 289 289 289 289 289 291 292 293 295 297 301 302 297 293 292 290
308 309 305 303 303 301 302 301 299 299 299 299 297 296 294 292 291 290 289 289 289 290 289 288 287 287 288 287 287 287 287 287 287 287 288 289 290 290 291 292 290 288 287 286
309 306 304 301 298 298 297 296 295 295 295 296 294 292 291 289 289 288 287 287 287 288 288 287 286 285 285 286 287 287 286 286 285 285 285 286 286 286 287 288 288 287 286 285
305 303 302 299 298 296 295 294 292 291 290 291 291 290 288 287 286 286 286 285 285 286 286 285 285 284 284 285 286 286 286 285 284 284 284 284 284 285 285 285 285 285 285 284
302 299 299 297 294 293 291 290 289 290 288 286 287 287 287 285 285 284 284 284 284 284 284 284 283 283 283 282 283 285 285 284 284 284 283 283 283 282 282 283 283 283 282 282
297 296 295 294 292 291 289 287 286 285 285 285 284 285 285 284 283 283 283 283 283 282 282 282 281 281 280 280 281 281 282 282 281 281 281 281 280 281 280 280 281 281 281 281
293 296 294 293 292 289 287 286 285 283 282 282 282 282 282 282 281 281 281 281 281 281 281 281 281 280 280 280 280 279 279 279 279 279 279 279 278 277 277 277 277 277 278 279
290 292 291 290 288 287 287 286 285 284 283 282 281 281 280 280 279 279 278 279 279 279 279 279 279 279 279 279 279 278 278 278 278 278 277 277 277 277 277 277 276 276 276 275
288 288 288 287 286 284 284 284 284 284 282 281 280 279 278 278 277 277 277 276 277 277 277 277 277 277 278 278 278 278 277 277 278 278 277 277 277 276 276 275 274 274 273 273
289 287 286 286 284 283 282 281 282 281 279 278 278 277 277 276 276 276 275 275 274 274 275 275 276 277 278 278 277 277 277 276 276 277 277 276 275 274 273 273 272 271 270 268
282 282 282 282 283 282 281 279 278 277 276 275 273 273 272 273 274 273 273 273 274 274 273 274 276 276 277 277 277 276 276 276 276 275 275 274 273 273 272 271 270 270 268 268
279 278 278 279 279 278 277 276 275 274 273 272 271 270 270 271 271 271 271 272 272 273 272 274 275 276 275 276 276 275 275 274 274 273 272 271 271 270 270 270 269 268 268 267
276 275 275 273 273 273 272 272 271 271 271 271 271 270 270 270 271 271 271 270 270 270 272 273 274 274 274 275 275 274 273 273 272 271 271 270 270 269 268 267 267 267 266 265
272 272 272 271 270 270 271 271 271 269 270 271 270 269 269 269 270 271 271 272 269 271 272 272 272 272 273 273 274 273 272 271 270 270 270 269 269 268 267 267 266 266 265 264
271 270 270 270 270 269 270 270 270 270 270 270 270 270 270 270 269 269 268 270 269 270 270 270 271 272 272 273 271 271 270 269 269 269 268 268 268 267 267 266 265 265 264 264
271 271 270 270 270 269 269 270 269 270 269 269 269 269 269 270 270 270 270 268 268 269 269 269 270 271 271 271 270 270 270 269 268 268 267 267 267 266 266 265 265 264 263 263
271 271 270 270 271 271 270 270 269 269 269 269 269 269 269 269 268 268 267 268 268 268 268 268 269 269 269 269 269 269 268 268 267 267 267 267 266 266 266 265 265 264 264 264
272 272 271 272 272 271 270 270 270 269 269 269 269 269 268 268 268 267 267 267 267 267 267 267 267 268 267 267 267 267 267 266 266 266 266 265 265 265 264 264 264 263 263 263
274 273 273 273 272 272 271 271 270 270 269 269 268 267 267 267 267 267 267 266 266 266 266 266 266 266 266 266 265 265 265 265 265 264 264 264 264 263 263 263 263 262 262 262
274 274 274 273 273 273 272 272 271 270 269 268 268 267 267 267 266 266 266 266 265 265 265 265 265 264 264 264 264 264 264 264 263 263 263 263 262 262 262 262 262 262 261 261

GFSNGP_925_thetae_108.txt.gz
Theta_e
313 313 314 314 314 314 314 315 315 313 314 316 319 320 319 316 315 315 313 312 309 308 307 304 302 301 302 321 320 319 319 318 318 318 318 320 320 319 319 319 319 319 319 319
312 311 313 313 312 313 313 314 314 314 314 317 318 315 314 313 312 311 309 307 306 303 302 301 299 299 300 317 320 319 319 318 317 317 317 318 320 319 319 318 319 319 318 318
311 311 311 311 312 312 313 315 316 316 318 315 316 313 310 310 308 306 304 303 303 299 299 297 297 297 299 304 320 319 319 318 318 318 317 317 318 318 319 319 319 319 318 319
311 310 311 316 316 314 313 315 315 315 316 314 314 309 305 304 303 302 300 299 299 297 296 294 294 296 296 306 317 316 315 317 318 318 319 319 318 318 318 318 318 318 318 318
311 310 308 309 316 316 315 317 315 315 315 315 312 309 305 300 299 298 297 296 295 295 293 292 292 293 293 295 298 300 300 301 302 308 314 317 317 318 319 318 319 319 318 317
309 309 310 316 313 313 316 317 313 312 312 313 313 317 306 300 296 295 294 293 293 293 292 291 291 292 292 292 292 293 294 294 296 298 302 304 310 315 317 318 318 316 315 314
310 309 307 310 309 311 317 315 308 308 308 308 307 304 300 297 294 292 292 291 291 292 291 290 290 291 291 291 291 291 291 291 291 293 295 297 300 306 309 314 312 306 302 300
310 310 309 307 312 314 309 306 306 304 304 304 302 299 297 294 292 291 290 289 290 290 290 289 289 290 290 289 290 291 290 289 289 290 290 292 295 296 297 297 294 291 291 290
312 313 305 303 303 303 305 305 303 302 301 300 299 296 293 292 290 289 288 288 288 288 288 288 288 288 289 289 289 288 288 287 287 288 288 288 289 290 290 291 289 288 287 285
309 305 303 301 300 299 300 300 299 298 299 298 296 293 292 290 289 288 287 286 286 287 287 286 286 286 287 288 289 288 288 287 286 285 285 286 286 286 287 288 287 286 285 284
306 303 300 297 297 297 296 296 295 294 294 295 294 292 291 289 288 287 286 286 285 285 285 284 284 285 286 287 289 289 288 287 286 285 284 284 284 284 284 285 285 284 284 283
305 299 299 297 295 294 293 293 292 293 292 291 291 291 290 289 287 286 285 285 284 284 283 283 283 282 283 285 287 289 287 286 286 285 284 284 283 283 282 282 282 282 282 282
298 296 295 293 292 292 291 289 289 289 289 289 288 287 287 287 285 285 285 285 284 283 283 283 282 281 281 282 283 284 285 285 284 284 284 284 283 283 282 281 281 281 281 281
295 296 294 293 292 290 289 287 286 286 286 286 286 286 285 285 285 284 283 283 282 283 282 282 282 281 280 281 281 282 282 283 283 283 283 282 282 282 282 282 281 279 278 278
293 292 292 290 289 288 289 289 288 287 286 285 284 284 283 283 283 282 281 281 281 281 280 280 280 280 280 280 280 282 282 282 282 281 281 281 282 282 282 282 281 280 279 277
290 291 290 289 288 287 287 288 287 286 285 284 283 282 281 281 280 280 279 279 280 279 279 279 279 278 279 281 281 281 281 281 282 282 281 281 281 281 281 280 280 279 278 279
290 290 288 288 287 285 284 284 284 283 282 282 281 280 280 280 279 278 278 277 276 277 277 277 278 277 278 280 281 281 281 280 281 281 281 280 280 279 279 279 277 276 274 273
284 284 284 284 285 285 283 281 280 279 279 277 276 276 276 276 277 276 276 276 276 275 275 276 276 277 277 279 280 280 280 280 280 279 279 279 278 278 277 276 275 274 273 272
281 281 280 280 281 281 280 278 277 276 275 274 274 274 273 274 274 274 275 276 276 276 274 275 276 276 276 276 279 279 279 279 278 277 276 276 276 275 275 274 274 273 272 272
278 277 277 275 275 275 274 274 274 273 273 273 273 273 273 273 273 274 274 273 272 273 273 273 276 276 276 275 277 278 277 277 276 276 275 275 274 273 272 272 272 272 271 271
275 275 274 273 273 272 272 272 273 272 272 272 273 272 272 272 272 274 276 275 272 272 273 273 273 274 274 275 276 276 276 276 275 275 274 273 273 272 272 271 271 270 270 269
275 274 273 273 273 272 272 272 272 271 272 271 271 272 273 273 273 272 271 273 272 271 272 272 271 271 272 273 274 274 274 274 273 273 273 273 272 272 271 270 270 269 269 268
274 274 273 273 273 272 271 271 271 271 271 271 271 272 272 273 273 274 274 270 271 270 271 269 269 269 271 272 272 272 272 272 272 271 271 271 271 270 270 269 269 268 268 268
274 274 274 273 273 274 274 272 272 271 270 270 270 270 273 273 272 271 270 269 268 269 268 268 268 269 270 271 271 271 271 270 270 270 269 269 269 269 268 268 267 267 266 266
274 274 274 274 275 274 273 273 272 272 272 272 271 270 270 270 271 270 270 268 268 269 268 267 267 268 269 269 269 269 269 269 269 268 268 268 268 267 267 266 266 266 265 265
276 277 276 275 275 275 274 274 274 273 272 272 271 270 270 269 269 269 268 267 267 267 268 267 267 267 267 267 267 267 267 267 266 266 266 266 266 266 265 265 264 264 264 263
277 276 276 276 275 275 275 274 274 273 272 272 271 270 269 269 268 268 267 268 267 267 267 267 266 266 266 266 266 266 266 265 265 265 265 265 264 264 263 263 263 262 262 261

GFSNGP_925_thetae_111.txt.gz
Theta_e
314 314 315 316 316 314 314 314 315 316 317 319 321 321 317 315 314 313 312 310 310 308 307 307 305 302 300 301 304 320 322 322 321 322 322 322 321 321 321 322 322 320 319 319
312 311 313 313 312 313 312 312 312 313 313 321 319 316 314 312 312 310 308 306 305 304 303 303 301 298 297 298 299 306 320 319 319 320 321 322 321 320 320 321 321 321 319 319
312 311 311 312 312 312 312 312 313 315 318 317 316 313 309 308 306 305 303 303 301 300 299 298 297 295 296 296 297 310 319 318 318 318 320 320 320 320 320 320 320 321 321 321
313 310 312 314 314 313 312 316 316 315 316 316 313 307 303 302 303 302 300 300 297 296 295 295 294 294 294 294 296 311 313 316 318 318 318 319 319 320 320 320 320 320 320 320
313 312 311 310 317 318 318 318 316 316 315 315 309 306 303 301 301 299 297 296 294 294 292 292 291 292 293 292 292 296 298 300 303 313 318 319 319 319 319 320 320 319 319 319
313 311 313 315 311 311 313 321 313 313 312 312 312 316 306 301 299 297 295 294 293 292 291 290 289 291 292 291 290 291 292 293 295 299 305 310 313 317 318 320 318 315 314 313
311 311 313 310 311 310 318 315 310 310 310 309 307 305 301 298 296 295 292 291 291 291 290 289 289 290 290 290 289 290 291 292 292 293 294 297 301 307 310 313 311 306 304 300
313 313 314 308 311 312 307 307 307 306 305 303 302 300 298 295 295 293 292 290 290 290 289 288 288 289 290 289 289 289 289 291 290 291 291 292 294 294 295 295 295 292 291 289
314 311 305 303 303 302 304 305 304 304 302 301 301 298 296 295 293 291 289 288 288 287 288 287 288 288 289 290 289 289 288 287 287 288 288 288 290 290 290 290 289 287 286 284
308 302 301 301 300 301 301 301 301 301 301 300 299 297 295 293 291 290 288 288 286 286 286 285 286 287 288 290 290 289 288 287 286 285 285 285 285 286 287 287 286 285 284 283
306 302 301 299 298 299 298 298 298 297 297 298 298 296 295 293 291 290 288 287 286 286 285 284 284 284 286 287 289 288 287 287 286 285 284 284 283 284 283 284 284 284 284 283
305 299 301 298 297 296 295 295 295 296 295 294 294 294 294 292 290 290 289 288 286 285 285 284 284 284 284 286 287 287 287 286 285 285 284 284 283 282 282 283 283 283 283 283
299 297 296 295 294 293 293 291 291 292 292 293 291 290 290 290 288 288 287 286 286 285 284 284 283 283 283 284 284 285 285 285 285 284 285 285 284 283 281 280 280 281 281 282
296 297 295 294 294 292 291 290 290 290 289 289 289 289 288 288 287 286 285 284 284 284 283 283 283 282 282 283 284 284 284 284 284 284 284 284 284 283 283 282 281 280 280 280
294 293 292 291 290 291 291 291 291 290 289 288 287 286 286 285 284 283 283 283 283 282 281 281 281 281 282 282 283 284 284 284 283 283 283 284 284 284 284 284 283 282 281 280
293 292 291 290 290 289 289 290 290 288 288 287 286 284 284 283 282 281 280 280 280 280 280 280 279 280 281 283 283 283 283 283 284 284 283 284 283 283 282 281 280 279 280 282
293 293 291 290 288 287 286 286 286 285 284 283 282 281 282 282 280 279 279 279 278 278 278 278 279 278 280 282 283 283 283 283 282 282 282 282 282 282 281 280 278 277 276 277
287 287 287 287 287 286 285 283 282 281 280 279 278 278 278 278 278 278 278 279 279 277 277 277 278 278 279 280 282 282 282 282 281 281 281 281 281 280 279 278 277 276 275 275
283 283 282 282 282 282 281 280 279 277 277 276 277 276 276 276 276 276 277 277 278 277 276 277 277 278 278 279 281 281 281 281 280 280 279 279 279 279 278 278 277 276 276 275
280 279 278 277 277 277 276 276 276 275 276 276 276 276 276 275 276 277 277 275 275 275 275 275 278 278 278 279 279 280 279 279 279 278 278 278 277 276 275 275 276 275 275 274
277 276 276 275 275 275 275 275 275 274 274 274 275 275 275 274 274 275 278 277 274 274 275 275 274 276 277 278 278 278 279 278 278 278 277 277 276 276 275 275 274 274 273 273
277 276 276 275 275 275 274 274 274 274 274 273 273 275 276 277 275 274 272 274 274 273 274 273 273 273 275 277 277 277 277 277 277 276 276 276 275 275 274 274 273 273 272 272
277 276 276 275 275 275 274 273 273 273 273 273 274 274 275 275 275 276 275 271 272 271 272 271 271 272 274 275 275 275 275 275 275 275 274 274 274 274 273 272 272 271 271 271
277 276 276 276 276 277 276 275 275 274 273 273 272 272 274 276 274 273 272 271 270 270 269 269 270 271 273 273 273 273 273 273 273 272 272 272 272 271 271 271 270 269 269 268
277 276 276 277 278 277 276 275 275 275 275 274 274 273 273 272 273 272 272 270 270 272 271 269 269 270 271 271 271 271 271 271 271 271 271 271 271 270 270 269 269 268 268 268
279 279 278 278 278 278 277 277 277 276 275 275 274 273 272 272 271 271 270 269 270 270 270 269 269 270 270 270 269 270 270 269 269 269 269 269 269 268 268 267 267 267 267 266
278 278 278 278 278 277 277 276 277 276 275 274 274 273 272 271 270 270 270 271 270 270 270 269 269 268 269 269 269 269 268 267 267 268 268 268 268 267 266 266 266 265 264 264

GFSNGP_925_thetae_114.txt.gz
Theta_e
314 312 313 320 318 314 309 312 314 319 320 323 320 317 316 314 313 311 310 308 307 306 304 302 302 300 299 298 298 298 300 309 322 322 323 324 324 323 322 323 322 321 321 320
313 310 314 317 317 316 317 316 316 315 317 319 317 314 312 310 309 307 306 305 303 301 299 298 297 296 296 296 296 297 301 309 322 322 324 323 322 322 321 323 322 321 320 320
312 311 311 311 312 313 312 312 313 317 320 319 313 310 308 306 305 304 302 301 299 298 296 295 294 293 295 295 295 295 302 316 321 322 322 322 321 321 322 321 321 320 319 319
314 313 312 317 315 317 316 318 318 318 317 313 308 305 303 303 303 301 299 298 296 295 293 292 292 292 292 293 293 293 294 299 312 320 321 322 321 321 321 321 321 321 320 319
314 314 311 314 313 315 317 318 315 315 314 310 306 306 303 301 300 298 297 295 294 293 291 290 290 290 291 291 291 292 291 292 295 305 320 320 320 320 320 320 320 321 321 320
312 313 314 312 311 311 313 316 304 312 312 312 310 315 304 300 298 296 293 292 292 291 290 289 289 289 290 290 289 290 290 290 292 295 304 314 318 319 319 318 313 312 311 309
312 311 314 308 310 310 316 312 306 307 306 305 305 302 300 298 296 294 292 290 290 291 289 288 288 289 290 289 289 288 289 290 291 293 293 298 304 309 313 310 305 300 300 297
312 312 314 304 308 310 307 305 306 304 303 302 301 300 298 296 294 292 290 289 288 288 288 287 287 288 289 289 288 288 287 288 289 292 291 291 293 294 296 296 293 289 289 287
311 309 303 302 303 302 303 303 303 303 302 301 300 298 297 295 293 290 289 288 287 287 286 286 285 286 287 288 288 288 286 286 286 287 290 291 289 290 289 289 288 286 285 284
308 302 301 300 300 300 300 300 300 300 300 300 299 298 296 294 293 290 289 288 287 286 286 285 285 285 286 288 288 287 286 285 285 285 285 286 287 289 286 286 286 285 284 283
305 301 301 298 298 298 298 297 298 297 296 297 297 296 295 293 292 291 290 288 286 286 285 285 284 284 285 286 287 287 286 286 285 283 283 283 284 284 284 284 284 284 284 284
302 297 300 297 296 296 294 294 294 294 295 293 293 293 293 291 290 289 288 287 286 285 285 284 283 283 284 285 285 286 286 285 285 284 283 282 282 282 283 283 283 283 284 284
299 297 296 295 294 294 293 292 292 292 292 292 291 291 291 289 288 287 286 285 285 284 283 283 283 283 283 284 284 285 285 285 285 285 285 284 283 281 281 281 282 283 283 283
296 297 296 294 293 293 293 292 292 291 290 289 289 288 288 287 285 284 284 284 283 282 282 282 282 282 283 284 284 284 284 284 285 285 285 284 283 282 281 281 281 281 281 282
294 293 292 292 291 291 291 292 292 290 289 288 286 286 285 284 283 282 281 282 281 281 280 280 280 281 283 283 283 284 284 284 284 284 284 284 283 283 283 283 283 282 282 281
294 293 292 291 290 289 288 288 289 288 287 285 284 284 284 283 281 281 280 279 279 279 279 279 279 280 282 284 284 284 283 283 284 284 283 283 282 281 280 279 279 279 280 281
294 293 290 290 289 287 285 285 285 284 282 281 281 280 282 281 280 280 280 279 277 278 278 278 279 280 281 283 283 283 283 283 283 282 282 282 281 280 279 278 277 277 277 278
288 287 286 287 287 286 284 282 281 280 279 278 278 278 278 278 278 278 278 278 278 277 276 278 279 279 280 282 282 282 281 281 281 281 281 280 280 279 278 277 277 276 276 276
283 282 281 281 282 281 280 279 278 277 277 277 277 277 276 277 277 277 276 276 277 277 276 277 278 279 279 280 281 281 281 280 280 280 279 279 279 279 278 277 277 276 275 275
280 279 277 277 276 277 277 276 276 275 276 277 277 277 276 275 275 277 275 274 274 276 275 275 277 278 279 279 280 280 279 279 279 278 278 277 276 276 276 276 276 275 274 273
278 277 276 276 276 276 275 275 275 275 274 274 276 275 275 275 274 276 277 276 274 275 274 274 274 276 277 278 278 279 279 278 278 278 277 277 277 276 276 275 274 274 273 272
277 277 276 276 276 275 275 275 274 274 274 275 275 276 277 276 274 273 273 274 273 273 273 272 273 275 276 276 276 276 277 277 277 277 276 276 275 275 274 274 273 273 272 271
277 277 276 276 276 275 275 274 274 274 274 273 273 274 275 275 274 275 273 271 271 271 271 271 272 274 275 275 275 275 275 275 275 275 275 274 274 273 273 273 272 272 271 271
278 277 277 277 277 278 277 276 276 274 274 274 273 273 274 276 274 273 272 271 271 270 269 270 271 272 273 273 273 273 274 273 273 273 272 272 272 272 271 270 270 269 269 268
277 277 277 278 279 278 277 277 276 276 276 275 275 274 274 273 272 271 272 271 271 272 271 270 271 271 271 271 271 270 270 271 271 271 271 271 271 270 270 269 269 268 268 268
279 280 279 278 279 279 278 278 278 277 277 276 275 274 273 273 273 272 271 271 271 271 271 269 269 271 270 270 270 270 270 269 269 269 269 269 269 268 268 268 268 267 267 266
279 279 279 279 279 278 277 276 278 277 276 275 274 274 273 272 271 272 272 271 271 271 270 270 269 269 269 269 269 269 268 268 268 268 268 268 267 267 266 266 266 265 265 264

GFSNGP_925_thetae_117.txt.gz
Theta_e
313 313 313 316 317 316 316 315 313 319 323 319 314 314 311 308 307 305 304 302 301 299 298 297 296 295 294 295 295 295 296 297 299 304 317 324 324 325 326 325 325 324 324 324
313 313 312 316 316 315 316 316 317 319 322 316 313 310 307 306 304 303 301 300 299 297 296 294 293 293 293 293 293 294 295 296 298 307 318 322 322 324 324 324 323 323 323 323
314 313 313 319 317 317 315 317 318 319 318 311 308 306 304 303 301 300 299 298 296 295 293 292 292 291 292 292 292 292 293 294 295 298 322 322 323 323 323 322 322 321 321 320
312 312 316 314 311 314 313 311 311 315 313 309 305 303 302 300 299 298 296 295 294 293 291 290 290 290 291 291 290 290 291 292 293 294 304 322 322 322 322 322 321 320 320 319
311 312 315 310 308 310 314 311 307 311 309 305 303 302 300 298 296 294 294 293 292 292 290 289 289 289 290 290 289 289 289 289 291 293 296 318 321 321 321 321 321 319 318 318
308 312 314 308 305 307 308 309 306 305 305 307 306 309 301 297 295 293 291 290 290 291 289 288 288 288 289 289 288 288 287 288 289 292 293 298 317 320 320 316 312 313 311 312
309 311 311 304 305 306 310 309 304 304 303 301 301 300 297 295 293 291 290 289 288 288 287 286 286 287 288 288 288 287 286 286 288 291 292 292 299 309 313 306 302 297 299 297
307 308 308 303 304 306 305 305 304 303 302 301 300 298 296 294 291 290 288 288 287 287 286 286 286 286 287 288 287 286 285 285 285 288 291 292 290 292 293 295 293 290 290 289
305 305 302 300 301 300 301 300 300 301 300 299 298 297 295 293 291 289 288 287 286 286 285 285 284 285 286 287 286 286 285 284 283 285 287 290 290 288 288 288 287 286 285 284
305 302 300 298 297 298 298 299 298 296 296 298 297 296 294 293 291 289 288 286 285 285 284 284 284 284 285 286 286 286 286 284 283 283 284 285 286 287 287 286 285 285 284 283
302 299 298 296 296 296 295 295 295 295 294 294 294 293 292 290 289 288 287 286 285 284 284 283 284 284 285 285 286 286 286 285 283 282 282 283 284 285 285 285 285 285 284 284
300 297 298 295 295 293 292 293 292 293 293 292 292 292 290 289 287 286 285 284 283 283 283 282 283 284 284 285 285 285 285 285 285 284 282 282 283 283 284 284 285 285 285 285
297 296 295 294 293 293 292 292 292 291 290 290 289 288 287 286 284 283 284 282 282 281 281 281 282 283 284 284 284 284 284 285 284 283 282 282 281 282 282 282 283 284 284 284
295 296 294 292 292 292 293 293 291 290 288 287 287 286 284 283 282 281 281 281 280 280 280 280 281 282 284 284 284 284 284 284 284 284 284 282 282 281 281 281 281 281 281 282
293 292 291 291 290 289 289 291 289 288 286 285 285 284 283 282 281 280 279 279 279 279 279 279 280 282 284 284 284 284 284 284 283 282 282 281 280 280 279 280 281 280 280 279
293 292 291 290 288 287 287 287 286 284 283 282 281 282 281 281 280 279 278 277 278 278 278 279 280 281 283 283 283 283 283 283 282 282 281 280 279 278 278 278 278 278 278 277
292 288 288 288 287 285 284 283 282 281 280 280 279 279 280 280 279 278 278 277 277 277 277 279 279 281 282 282 282 282 282 281 281 280 280 279 278 277 277 276 276 276 275 275
282 282 282 283 283 282 281 279 279 279 278 277 277 277 277 277 277 276 276 277 276 276 277 278 279 279 281 281 281 280 280 280 280 280 279 279 278 277 276 276 275 275 274 274
279 279 278 279 279 278 278 277 277 277 277 277 276 276 275 275 276 275 275 275 275 275 275 277 278 279 279 280 279 280 279 279 279 278 278 278 277 276 276 275 274 273 273 272
278 277 276 275 276 275 275 275 274 275 275 275 275 275 275 274 275 275 274 273 274 274 274 275 277 277 278 279 279 279 278 278 277 277 276 276 276 275 275 274 273 272 272 271
276 276 275 275 275 275 275 275 274 274 274 275 275 275 274 273 274 274 274 272 273 273 273 274 275 276 277 277 278 278 277 277 277 277 276 276 275 274 274 273 273 272 271 270
277 276 276 275 274 274 274 274 274 274 274 274 275 275 275 273 273 272 271 271 272 272 272 273 274 275 275 275 276 276 276 276 276 275 275 274 274 273 273 272 272 271 271 270
277 276 276 276 275 274 274 274 273 273 273 273 274 274 274 273 272 271 271 271 270 270 271 272 273 273 274 274 274 273 274 274 273 273 273 273 273 272 272 271 271 270 270 269
277 276 276 276 275 275 275 275 275 274 274 274 273 273 273 273 272 271 271 271 270 270 271 271 271 271 271 271 272 272 272 272 272 272 272 272 271 271 270 270 269 269 268 268
277 277 277 277 277 277 276 276 276 275 275 274 274 273 273 272 271 271 271 271 271 270 270 270 270 270 270 270 270 270 270 270 271 271 270 270 270 269 269 269 268 268 267 267
277 278 278 278 278 278 278 278 277 276 276 274 273 273 272 272 272 271 271 271 271 270 269 269 269 269 269 269 269 269 269 269 269 269 269 268 268 268 267 267 267 267 266 266
279 279 278 278 278 277 276 276 276 274 274 274 273 273 272 272 272 271 271 271 270 270 270 269 269 269 269 269 268 268 268 268 268 268 267 267 267 266 266 266 265 265 265 264

GFSNGP_925_thetae_120.txt.gz
Theta_e
311 312 315 316 316 315 317 318 315 320 322 315 310 309 305 302 303 302 301 299 297 296 294 294 293 292 292 292 292 292 293 294 295 295 297 299 306 316 324 325 326 327 326 325
311 312 314 315 316 313 314 315 319 317 318 311 308 306 304 302 301 300 298 297 296 294 293 292 291 291 291 291 291 291 291 292 293 294 295 298 306 316 323 324 325 325 325 325
312 311 315 312 310 311 310 309 316 318 314 307 304 302 300 299 298 298 297 295 294 293 292 290 290 290 290 290 290 290 290 290 291 292 293 296 302 317 323 323 323 324 322 323
311 310 316 312 306 309 308 307 306 309 306 304 301 299 298 296 296 295 294 293 293 292 290 289 289 289 289 290 289 289 288 288 289 290 291 294 298 308 322 322 321 322 321 321
310 311 315 308 305 307 309 308 306 306 306 304 301 300 298 295 294 293 292 291 290 290 288 288 287 287 288 288 288 287 287 287 287 288 290 292 295 300 322 321 320 320 320 320
308 312 311 306 302 303 306 308 305 303 303 304 305 305 299 294 292 291 290 289 288 288 287 286 286 286 287 287 287 287 286 285 285 286 288 291 293 299 320 320 316 318 316 316
307 310 308 302 302 302 306 307 304 303 302 300 299 298 295 293 291 289 288 288 287 286 285 285 285 286 286 287 286 286 285 284 284 285 286 289 293 294 299 305 303 300 303 304
304 305 305 300 301 303 302 299 301 301 300 299 298 296 294 291 290 288 287 287 286 285 285 285 284 285 286 286 286 286 284 283 283 284 285 287 290 292 291 292 293 291 291 291
304 304 300 298 299 298 299 299 297 296 297 298 296 294 293 291 289 288 286 285 285 284 284 284 284 285 285 285 286 286 284 283 283 284 285 285 286 290 287 288 288 289 288 285
303 300 298 296 296 296 296 296 296 296 294 296 295 293 291 290 289 287 285 284 283 283 283 283 283 284 284 284 285 285 285 284 283 283 284 284 285 286 286 286 286 286 285 284
299 298 297 295 294 293 293 293 293 293 292 292 292 290 288 287 286 285 284 283 282 281 281 281 282 283 284 284 284 285 285 284 283 283 282 284 284 285 285 285 285 285 285 285
294 293 297 294 293 292 291 292 291 291 290 289 289 288 286 284 284 283 282 281 281 280 280 281 281 282 283 284 284 284 285 284 283 282 282 282 283 283 283 284 284 284 285 285
297 294 293 292 292 292 292 292 290 289 289 288 287 286 284 282 282 281 281 280 280 279 280 280 281 283 283 284 284 283 283 283 283 282 282 282 282 282 282 282 282 282 283 283
294 293 291 292 291 291 290 292 289 287 286 286 285 284 282 281 280 280 279 279 279 279 279 280 281 282 283 283 284 283 283 282 282 281 281 280 280 280 281 280 280 279 280 280
292 291 290 289 288 288 288 289 287 285 284 283 283 282 281 280 279 278 278 278 278 278 278 279 280 281 283 283 283 282 282 281 281 280 280 279 279 279 279 279 278 278 278 278
293 291 289 287 286 285 285 284 283 283 282 281 281 281 280 280 280 278 277 276 276 276 277 278 279 281 281 282 282 282 281 281 280 280 280 279 278 277 277 277 276 275 275 275
287 286 286 286 283 282 281 281 280 280 279 279 278 278 279 278 277 277 276 276 276 276 277 278 278 280 281 281 281 281 280 280 279 278 278 277 277 276 276 275 274 273 273 273
281 281 281 283 281 280 279 279 278 278 277 276 276 276 276 275 275 274 274 275 275 275 276 277 278 279 280 280 280 280 279 279 279 278 277 277 276 276 275 274 273 273 272 273
278 278 279 278 278 278 277 276 276 276 276 276 275 274 274 275 274 274 274 273 273 273 274 276 278 278 279 279 279 279 279 278 278 277 277 276 275 275 274 273 272 272 272 271
277 276 276 275 275 274 273 274 274 275 275 275 274 274 274 274 274 273 273 272 272 272 274 275 276 277 278 278 278 277 277 276 276 276 276 275 274 273 273 272 271 271 270 270
274 274 274 274 274 274 274 274 274 274 274 275 275 273 272 272 272 272 271 271 271 272 274 274 275 275 276 277 277 277 277 276 276 275 275 274 273 273 272 271 271 270 269 269
275 275 274 274 274 274 274 274 274 274 274 274 275 274 273 272 272 271 270 270 270 272 272 273 273 274 274 275 275 275 275 275 275 274 274 273 273 272 272 271 270 269 269 268
276 276 275 274 274 273 273 273 273 273 273 273 274 273 272 271 271 271 270 270 270 271 271 271 272 272 273 273 273 273 273 273 273 273 273 272 272 272 271 270 270 269 268 268
276 275 275 275 275 274 274 274 274 274 273 273 273 273 273 272 271 271 271 271 270 270 270 270 270 270 270 271 272 272 272 271 271 271 271 271 270 270 270 269 269 268 268 267
276 276 277 276 276 276 276 276 275 275 274 273 273 273 272 272 271 270 271 271 270 269 270 270 270 269 269 269 269 270 270 270 270 270 270 269 269 269 268 268 268 267 267 266
277 277 277 277 278 278 278 276 276 276 274 273 273 272 271 271 271 271 271 270 270 269 269 268 269 269 269 268 268 268 269 268 268 268 268 268 268 267 267 267 266 266 266 265
277 278 277 277 277 277 276 276 275 275 274 273 273 272 272 271 271 271 271 270 270 270 269 269 268 268 268 268 268 267 267 267 267 267 267 266 266 266 266 265 265 265 264 264

GFSNGP_925_thetae_123.txt.gz
Theta_e
308 309 311 314 315 314 314 316 319 318 314 309 305 304 301 300 300 298 298 297 296 295 293 292 292 291 291 291 291 290 290 290 291 292 293 293 295 298 303 308 318 325 326 327
309 311 311 307 308 309 309 311 317 313 310 306 302 301 301 300 299 298 297 296 295 293 292 291 290 290 290 290 290 290 290 290 290 290 291 292 294 296 299 308 318 323 325 326
310 310 316 310 307 308 308 307 311 315 309 303 301 299 297 297 296 296 295 294 294 292 290 289 288 288 288 289 289 289 289 288 288 288 289 291 292 295 298 304 316 323 325 325
310 310 311 309 305 307 307 305 305 306 304 302 299 297 296 295 294 293 292 291 291 289 288 287 286 286 287 288 287 287 287 287 287 287 288 289 291 293 295 299 311 323 323 324
309 312 311 308 303 304 307 306 303 304 305 304 301 301 295 293 292 291 290 289 288 287 286 286 285 286 287 287 287 286 286 285 285 285 286 288 290 291 293 297 308 322 322 322
308 311 309 305 301 301 304 306 303 302 301 300 300 303 297 293 290 289 288 288 286 285 285 285 284 285 286 286 286 286 285 283 283 284 285 287 288 290 291 297 310 320 319 319
306 311 307 301 300 301 306 303 301 301 301 298 298 297 293 291 290 288 286 286 286 285 285 285 284 285 285 285 285 286 284 283 282 284 285 286 287 289 290 295 296 304 310 306
303 304 302 299 300 302 301 298 297 296 299 298 296 295 292 291 289 287 285 284 283 283 284 284 284 284 284 285 285 285 285 283 282 283 284 285 286 287 288 292 292 292 293 295
304 303 299 298 299 298 298 298 297 295 295 297 295 293 292 290 288 286 284 282 282 281 281 282 283 283 284 284 284 284 283 283 282 282 284 284 285 286 287 287 287 287 289 289
302 300 298 296 295 295 295 294 294 294 293 294 293 291 289 287 286 285 282 281 281 280 280 281 282 283 283 283 284 284 283 282 282 282 283 283 283 284 285 286 286 286 286 286
299 298 296 294 293 292 293 292 292 290 289 291 289 288 286 285 284 282 281 281 280 280 280 280 281 282 283 283 283 284 284 283 282 282 282 282 283 282 283 284 284 285 285 286
289 295 296 294 293 292 290 291 290 291 289 287 286 285 284 282 282 281 280 280 279 279 279 279 281 281 282 282 283 283 283 282 281 281 281 281 282 282 281 281 282 282 283 283
297 294 291 291 290 291 293 291 289 288 287 287 285 284 282 281 281 280 279 279 279 278 279 280 281 281 281 282 282 282 281 281 281 280 280 280 280 280 280 280 279 279 280 281
293 293 291 291 290 289 291 288 287 285 284 284 283 282 281 280 279 279 278 278 278 278 278 279 280 280 282 282 281 281 281 280 280 280 280 279 279 278 278 278 277 277 277 278
291 289 288 286 285 286 287 286 284 283 283 282 282 281 281 280 279 278 277 277 277 277 277 278 278 279 281 281 281 280 279 280 280 279 279 278 278 277 277 276 275 275 275 276
291 288 286 285 283 282 283 283 282 281 280 280 280 280 279 279 278 277 276 275 275 274 275 277 278 279 280 280 280 280 279 279 279 278 278 277 277 276 275 274 274 273 272 273
287 286 287 283 282 281 280 280 279 279 279 278 278 277 278 277 276 275 274 274 275 275 275 276 277 279 279 280 280 279 279 278 278 277 277 276 275 275 274 273 272 271 270 272
282 281 283 282 281 280 279 278 278 277 276 275 275 275 274 274 273 273 273 273 274 275 275 276 277 278 278 278 279 279 278 278 277 276 276 275 274 274 273 272 271 271 271 272
279 279 279 279 278 278 276 276 275 274 274 274 274 273 273 273 273 272 272 272 271 272 273 275 276 277 277 277 277 277 277 277 276 276 275 275 274 273 272 271 271 271 271 271
277 276 275 274 274 274 273 273 274 274 275 274 274 274 273 272 272 272 271 270 271 272 273 274 275 276 276 277 277 277 276 276 275 275 274 273 272 272 271 271 270 270 270 269
273 274 273 273 274 274 274 274 275 274 274 274 274 272 272 271 271 271 270 270 271 272 273 273 274 274 275 276 276 276 275 275 275 274 273 273 272 271 270 270 269 269 269 268
273 273 274 274 273 274 274 273 273 274 274 274 273 272 272 271 271 270 270 270 271 271 271 271 272 273 273 274 274 274 274 274 273 273 273 272 272 271 270 270 269 268 268 267
274 274 274 274 274 273 273 273 273 273 273 273 273 272 272 271 271 271 270 270 270 270 270 270 270 271 272 272 272 272 272 272 272 272 272 271 271 271 270 269 268 268 268 267
275 275 274 274 274 273 273 273 273 273 273 272 273 272 272 271 271 270 270 270 269 270 270 269 269 269 269 270 271 271 271 271 271 270 270 270 270 269 269 269 268 267 267 266
275 275 275 275 274 275 275 275 274 274 273 273 272 272 272 271 270 270 270 270 269 269 269 269 269 269 268 268 269 269 269 269 269 269 269 269 268 268 268 267 267 266 266 266
276 276 277 277 277 277 276 276 275 275 274 273 272 271 271 271 271 270 270 270 270 269 268 268 268 268 268 268 268 268 268 268 268 267 267 267 267 267 267 266 266 266 265 264
276 277 277 277 277 277 277 276 276 275 274 273 273 272 271 271 271 270 270 270 269 269 269 268 268 268 267 267 267 267 267 266 266 266 266 265 265 265 265 265 264 264 264 264

GFSNGP_925_thetae_126.txt.gz
Theta_e
306 307 311 307 308 308 311 313 318 311 307 304 302 301 299 298 297 297 296 295 294 292 292 290 290 289 290 290 290 289 289 289 289 290 290 290 291 292 293 296 300 304 309 319
307 311 314 308 306 305 305 307 314 310 306 303 300 298 297 297 296 295 294 294 292 291 290 289 288 288 288 289 288 288 288 288 288 288 288 289 290 291 292 295 298 301 308 319
309 309 313 309 306 308 305 304 308 306 306 302 298 297 295 294 293 293 292 291 290 289 288 287 287 287 288 288 287 287 287 286 286 286 286 287 289 290 292 293 295 299 306 318
309 311 311 308 303 306 306 304 303 304 303 300 297 295 294 292 291 290 290 289 288 287 286 286 286 286 286 287 287 286 285 285 284 284 285 286 288 289 290 292 293 296 303 315
308 311 309 306 302 301 303 305 302 302 300 300 299 300 294 291 290 289 288 287 286 285 285 285 285 285 286 286 286 286 285 284 283 284 285 286 287 287 289 290 292 296 302 314
306 311 308 303 299 300 303 305 300 301 299 298 297 298 295 291 289 287 285 285 284 284 284 284 284 285 285 285 285 285 284 283 283 283 284 285 286 287 288 289 291 293 300 310
303 308 306 299 298 299 305 300 298 297 299 297 297 295 293 290 288 286 284 283 282 282 283 283 283 284 284 284 284 284 283 282 282 283 283 284 285 286 287 288 289 291 295 296
303 302 300 297 298 300 299 298 296 295 295 297 295 293 291 288 286 284 282 281 281 280 281 282 282 283 283 283 284 284 283 282 281 282 283 282 283 284 286 287 288 288 289 290
303 302 298 296 297 296 296 296 295 294 293 295 293 290 288 286 285 282 281 280 280 279 280 281 281 282 283 283 283 284 283 282 282 282 282 282 282 283 284 285 286 286 287 287
300 299 297 294 294 293 294 293 291 290 291 290 289 287 286 285 284 281 280 280 279 279 279 280 280 281 282 282 283 283 282 281 281 281 281 281 281 281 281 282 283 283 284 285
299 298 296 294 293 292 292 292 291 289 288 288 287 285 283 282 282 280 280 279 279 279 279 279 280 281 281 281 282 282 282 281 280 280 280 280 281 280 280 280 281 282 282 283
297 295 296 294 293 292 290 291 289 289 287 285 285 284 282 281 281 280 279 279 279 278 278 278 279 280 280 281 281 281 281 280 279 279 279 279 279 279 280 279 278 279 280 281
296 293 292 290 290 289 290 289 287 286 285 285 283 282 281 280 280 279 278 278 278 277 277 278 278 279 280 280 280 280 279 280 279 279 278 278 278 278 277 279 278 277 277 278
294 293 291 290 288 289 288 286 285 283 283 283 282 281 280 279 279 278 277 277 277 277 277 277 277 278 280 280 279 279 279 279 279 278 278 277 277 276 276 275 275 275 276 275
289 287 286 284 283 284 284 284 283 282 281 281 281 280 280 279 278 277 276 276 276 276 276 276 277 278 279 279 279 279 278 278 278 278 277 277 276 275 274 274 273 272 273 276
287 285 284 283 282 281 281 281 281 280 279 279 279 279 278 277 276 275 274 274 274 274 274 275 276 277 278 279 279 278 278 277 277 276 276 275 275 274 274 273 272 271 270 271
289 287 284 283 282 281 280 279 278 278 277 277 276 275 276 275 274 273 273 273 273 274 274 275 276 277 277 277 278 277 277 277 276 275 274 274 273 273 272 272 271 270 270 270
283 283 283 282 281 280 279 278 277 276 275 274 274 274 273 272 271 271 271 272 273 274 274 275 275 276 277 277 277 277 276 276 275 274 273 273 272 271 271 271 270 270 271 272
279 279 279 279 278 277 276 275 274 274 274 274 274 272 272 272 271 271 271 271 271 271 272 274 275 275 276 276 276 276 275 275 274 273 272 272 271 270 270 269 269 269 270 270
277 276 275 274 275 274 273 273 274 274 274 274 273 273 271 270 270 270 271 270 270 271 272 273 273 274 275 275 275 275 275 274 273 273 272 271 270 270 269 269 268 268 268 268
273 273 272 272 273 273 274 274 275 274 273 273 273 272 271 270 270 270 270 269 270 271 271 271 272 272 273 274 274 274 274 273 273 272 272 271 270 269 269 268 268 267 267 267
272 272 272 273 273 273 273 273 274 274 274 273 273 272 271 270 270 270 269 269 270 270 270 270 270 271 272 272 272 273 272 272 272 271 271 270 270 269 269 268 267 267 267 266
273 273 273 273 273 273 272 273 273 273 273 273 272 272 271 270 270 270 270 269 269 269 269 269 269 269 270 271 271 271 271 271 271 270 270 270 269 269 268 268 267 267 266 266
273 273 273 273 273 273 272 273 273 273 273 272 272 271 271 271 270 270 270 269 269 269 269 269 268 268 268 269 269 269 269 269 269 269 269 269 268 268 268 267 267 266 266 266
274 274 273 273 273 274 274 273 273 273 273 273 272 272 271 271 270 270 270 270 269 268 268 268 268 268 267 267 268 268 268 268 267 267 267 267 267 267 267 266 266 266 265 265
274 274 275 275 276 275 275 275 274 274 274 273 272 271 271 271 271 270 270 269 269 269 268 268 267 267 267 267 267 266 266 266 266 266 266 266 266 265 265 265 265 264 264 264
275 276 276 276 276 277 277 276 275 275 274 274 273 272 271 271 271 270 270 269 269 269 268 268 267 267 267 267 266 266 266 266 265 265 265 264 264 264 264 264 264 263 263 263